GFSSW_850_thetae_036.txt.gz
Theta_e
308 308 309 309 310 311 311 312 312 312 312 311 311 309 308 308 308 308 309 311 312 311 315 313 311 313 313 315 317 317 319 323 330 332 331 329 329 326 324 326 329 330 335 338 337
308 308 309 310 310 311 312 312 312 312 312 311 310 309 308 308 308 310 313 312 311 311 315 315 312 314 315 316 317 318 321 321 321 327 326 327 325 326 325 327 328 330 336 337 336
308 308 309 310 311 312 312 312 312 312 311 311 309 308 308 309 312 315 317 312 311 313 314 315 314 315 315 316 318 318 321 320 318 323 324 326 326 326 327 329 330 330 337 337 336
308 308 309 310 311 312 312 312 312 312 311 310 309 308 308 311 318 317 317 313 313 314 318 316 315 316 316 317 317 319 318 317 315 323 324 324 326 327 329 327 328 329 337 335 335
308 308 309 311 312 312 312 312 312 311 310 309 308 308 310 315 316 317 317 317 315 316 317 316 316 316 316 318 318 318 318 314 315 319 324 325 326 327 328 327 329 334 337 335 333
308 309 310 311 312 312 311 311 312 311 310 308 308 309 311 318 313 317 317 316 316 316 317 317 316 316 319 319 319 317 315 313 313 317 321 325 326 328 326 328 332 335 333 329 325
308 309 311 312 312 311 311 312 311 310 309 308 309 310 312 316 315 318 316 316 317 316 317 317 317 317 319 320 313 314 316 316 317 319 320 323 323 319 325 328 331 331 329 326 322
308 310 311 312 312 311 311 311 310 309 309 309 310 312 317 313 314 316 317 318 316 316 317 317 317 317 318 315 315 316 317 318 318 319 316 320 320 318 324 327 328 328 327 326 324
309 311 312 312 312 311 311 311 309 309 309 310 312 314 318 314 315 318 316 316 316 315 316 316 317 318 317 318 316 317 317 317 317 316 319 318 318 318 325 325 328 328 327 325 324
310 311 312 312 311 311 311 310 309 309 310 312 314 319 315 317 317 316 315 315 318 317 317 317 318 318 318 318 318 318 316 317 317 317 318 318 321 319 326 325 325 327 327 326 325
311 312 312 312 311 311 310 310 312 315 311 318 316 318 316 317 317 316 315 317 319 319 320 319 320 318 318 318 318 318 320 319 318 318 319 319 321 321 323 326 325 325 326 326 326
311 312 313 312 310 311 310 313 315 318 319 313 315 315 314 314 318 316 316 318 319 319 320 321 320 319 319 318 319 319 320 321 319 317 320 322 323 322 321 326 326 326 326 326 325
311 312 313 312 310 310 310 310 318 321 324 318 316 316 316 316 317 317 316 318 318 319 321 320 320 319 320 320 321 321 322 321 321 319 321 322 324 323 321 322 323 324 326 326 326
311 312 313 311 310 310 310 312 316 324 321 317 317 316 314 317 317 316 317 318 320 319 321 321 319 320 321 321 321 322 321 321 320 321 322 321 322 324 324 322 322 323 325 326 327
312 312 313 310 310 309 313 313 318 324 317 316 317 316 317 318 317 318 317 318 319 320 320 321 321 321 321 321 320 323 320 321 321 322 323 322 322 324 323 325 323 323 325 327 327
312 312 313 310 310 311 313 320 325 325 319 317 317 318 318 317 317 318 319 318 319 321 321 321 319 321 321 320 320 321 323 323 323 323 323 323 323 319 322 323 325 323 326 326 324
312 312 312 310 312 313 316 324 323 321 317 318 317 318 318 318 318 319 320 320 321 322 323 322 322 320 320 322 321 323 323 321 323 324 322 323 323 320 322 322 324 325 325 323 322
312 312 313 310 312 314 322 324 320 317 318 317 317 318 318 318 319 320 321 321 320 321 322 321 323 321 320 322 322 322 322 320 317 321 322 322 324 324 321 319 322 324 324 322 321
312 312 312 310 312 324 321 324 319 320 319 318 318 318 319 319 318 320 321 321 321 321 321 322 322 319 319 320 321 321 321 322 324 319 324 322 323 322 321 320 322 324 323 322 320
312 312 313 311 316 319 323 322 319 320 318 318 317 318 319 320 318 320 321 320 320 319 321 322 322 319 319 319 319 322 320 322 322 322 318 319 319 319 322 322 322 324 323 321 320
313 314 315 312 313 320 323 320 319 322 320 318 317 319 320 321 319 319 321 320 319 320 321 322 322 321 320 320 321 321 322 319 320 320 317 316 316 321 320 322 322 323 322 320 320
315 318 316 313 322 323 321 319 320 320 321 319 319 319 320 321 321 319 320 320 319 320 322 320 323 325 322 318 318 320 321 320 318 318 320 320 317 316 319 321 321 321 321 321 320
316 320 321 321 325 323 319 319 322 320 321 321 321 321 321 322 322 322 323 318 318 320 322 320 323 324 322 320 319 320 320 319 317 319 319 326 316 316 318 319 319 320 320 320 318
316 322 321 317 317 320 319 320 321 319 321 321 322 322 323 323 323 324 323 319 316 318 313 316 322 322 322 321 320 321 320 319 319 319 317 318 316 316 317 319 319 319 319 318 316
318 320 321 323 318 319 319 319 321 322 321 321 322 323 324 325 323 324 322 317 317 315 318 320 322 320 318 316 316 317 318 319 318 318 318 317 316 315 315 316 317 318 318 317 315
319 320 317 319 316 318 317 320 321 321 322 322 324 323 323 324 323 325 323 320 321 318 320 317 321 318 319 316 316 316 317 316 318 318 318 318 317 317 315 314 316 317 317 316 315
318 317 318 314 317 319 319 321 321 323 320 320 323 323 324 322 320 321 318 318 318 321 320 320 320 318 317 313 314 319 318 317 317 318 318 318 318 316 315 315 315 316 316 315 314

GFSSW_850_thetae_039.txt.gz
Theta_e
307 308 309 309 310 310 310 311 312 312 312 312 311 311 310 308 308 308 311 314 313 311 314 316 315 315 315 316 317 318 321 322 328 331 333 330 329 328 327 327 327 332 334 338 339
307 308 308 309 309 310 310 311 312 312 312 312 311 310 309 308 308 310 313 312 311 311 313 316 316 315 315 316 317 319 320 322 330 330 328 330 328 326 325 324 324 330 336 339 341
307 307 308 309 309 310 311 312 312 312 312 311 311 309 308 308 315 317 317 316 312 311 316 317 315 314 316 317 318 319 321 323 322 325 325 326 325 325 326 328 328 329 339 339 340
307 307 308 309 309 311 312 312 312 312 312 311 310 308 308 309 322 319 317 316 310 313 316 316 315 316 317 318 318 320 320 321 321 321 325 325 326 327 328 328 327 330 339 339 337
306 307 308 309 310 311 312 312 311 312 311 310 309 308 308 319 317 319 317 317 312 315 317 316 316 317 318 317 318 319 321 319 319 322 323 324 326 326 327 325 324 333 338 338 337
306 307 308 309 311 312 312 311 311 312 311 310 308 308 312 318 316 318 318 317 315 317 317 318 317 317 319 320 320 320 320 318 321 323 324 325 326 326 328 326 329 335 335 334 334
306 307 308 310 311 312 312 311 312 311 310 309 308 309 316 317 317 320 318 319 319 317 318 318 318 318 320 322 318 317 318 318 318 321 324 325 327 327 327 327 330 333 332 329 327
306 307 309 310 312 312 311 311 311 310 309 309 309 311 317 317 317 319 320 320 319 319 319 319 319 319 320 320 317 318 318 320 321 322 323 324 323 324 326 327 327 327 326 323 322
307 307 309 311 312 312 311 311 311 309 309 309 311 316 320 317 316 318 318 319 319 319 319 318 319 320 320 320 317 318 318 320 321 322 322 323 321 322 324 326 326 326 325 323 322
307 307 310 311 312 312 311 311 310 309 309 310 313 322 319 318 318 319 318 318 320 320 320 319 320 322 321 320 319 319 320 319 319 319 320 319 320 322 324 325 327 326 325 325 324
307 308 311 312 312 311 311 310 315 319 317 317 319 318 318 319 318 318 317 318 320 321 323 321 321 321 320 320 320 319 318 318 319 318 318 318 320 322 324 324 325 327 327 326 326
307 308 311 312 312 311 311 316 317 321 322 316 316 317 318 318 319 318 317 319 320 322 320 321 321 320 320 319 319 319 321 320 320 318 319 319 320 321 323 324 324 325 327 327 327
307 309 311 312 312 311 311 315 319 320 324 319 316 317 318 318 318 318 318 319 320 320 321 322 322 321 319 319 319 320 321 322 321 320 320 322 322 324 323 325 326 326 326 327 328
308 309 312 312 312 314 314 312 317 321 326 320 318 317 317 318 319 318 318 319 320 319 320 323 322 321 320 320 320 322 322 322 321 322 321 322 322 323 325 325 326 326 327 327 327
308 310 312 312 318 316 318 315 318 325 325 318 317 318 318 318 318 318 318 318 320 319 320 322 322 321 320 322 322 324 322 322 321 321 323 323 321 324 326 325 325 325 327 327 328
308 310 312 312 312 316 319 318 321 328 326 317 318 319 319 318 318 318 318 318 320 320 319 321 322 322 323 322 322 323 323 323 322 322 324 323 322 322 325 325 326 325 326 328 329
308 311 312 313 315 316 318 326 327 325 319 318 319 319 319 319 318 318 318 319 319 320 321 322 322 323 322 322 323 322 323 325 325 323 324 324 323 321 323 324 324 325 326 328 328
309 311 312 313 316 318 322 327 326 320 320 319 319 319 319 319 319 318 319 319 319 320 321 321 324 322 322 323 323 323 323 324 321 321 321 324 320 324 325 323 324 325 326 327 326
309 311 312 313 314 320 323 328 324 320 319 319 318 319 319 319 319 319 320 319 319 321 321 324 322 322 322 322 322 323 321 323 323 326 324 319 322 325 324 323 324 326 327 326 325
310 312 313 314 312 321 325 325 323 320 319 319 319 319 319 320 318 318 319 319 320 322 323 322 323 321 321 322 322 322 323 322 322 322 320 320 319 323 323 323 324 326 326 325 324
314 315 315 316 312 321 326 324 322 319 320 319 319 319 319 319 319 318 320 321 322 322 323 322 322 323 321 322 321 324 322 322 322 323 322 318 320 320 320 322 323 325 325 325 324
315 318 318 315 316 321 325 323 321 321 322 320 320 319 320 320 321 319 319 321 321 322 322 323 322 322 322 322 322 322 323 323 323 320 321 324 320 318 320 320 321 322 324 324 323
316 320 320 316 320 327 322 322 320 320 323 321 319 320 320 321 321 320 319 322 322 323 322 323 320 321 323 323 322 322 321 321 321 321 321 327 320 319 319 318 319 320 322 323 322
317 323 318 320 316 323 324 322 320 321 322 320 320 320 320 320 321 322 321 322 321 322 316 320 320 321 322 321 323 324 323 322 321 323 320 319 319 318 318 318 318 318 319 321 322
318 319 319 323 323 323 323 321 321 322 322 322 322 322 321 322 322 324 323 322 321 318 319 323 323 322 321 321 321 321 321 321 321 321 322 319 319 317 317 317 317 317 318 320 321
319 318 318 318 320 323 321 322 320 322 323 323 320 322 323 323 324 324 325 324 323 322 323 322 323 322 322 321 320 320 320 320 318 319 319 319 318 318 318 317 317 316 317 318 319
319 317 320 322 324 322 323 321 320 324 324 323 321 322 324 325 325 324 324 323 323 324 324 324 323 322 320 318 317 320 319 319 319 319 319 320 319 318 318 317 316 316 317 317 318

GFSSW_850_thetae_042.txt.gz
Theta_e
308 307 308 308 309 309 310 310 311 311 312 312 312 312 311 309 308 308 311 313 315 314 311 315 317 315 316 316 317 317 318 320 322 327 331 326 329 329 329 327 331 331 337 337 338
307 307 307 308 308 309 310 310 311 312 312 312 312 311 310 308 308 309 316 313 311 311 312 315 317 317 316 316 317 318 319 320 326 330 328 325 327 328 325 326 328 334 340 340 338
308 307 307 307 308 309 310 311 312 312 311 312 311 311 309 308 314 320 317 317 314 312 311 316 318 316 316 316 317 318 319 320 325 326 326 324 325 328 326 327 327 335 339 340 339
308 307 307 307 308 309 310 311 312 311 311 312 311 310 308 308 324 320 316 318 312 311 315 317 317 316 316 317 318 319 319 319 323 327 327 327 327 327 326 324 322 327 339 338 338
309 307 307 307 308 309 310 312 312 311 312 311 310 309 308 321 319 319 317 317 314 313 316 317 316 316 317 318 318 318 319 320 320 320 325 325 326 326 324 323 324 327 338 338 336
309 307 306 307 308 309 311 312 311 311 312 311 309 308 309 318 317 318 320 317 316 315 318 318 317 317 318 319 318 319 319 320 320 322 323 325 327 327 326 326 337 338 338 336 335
310 307 306 307 308 310 311 312 311 311 311 310 309 308 315 315 318 320 321 320 317 317 318 318 318 318 319 321 321 320 319 319 321 322 324 323 325 323 327 328 333 334 333 332 332
311 308 307 307 309 310 312 312 311 311 310 309 309 310 318 317 317 318 320 321 321 320 319 319 320 319 319 321 320 318 319 321 321 321 322 325 326 323 326 328 331 332 331 330 328
313 309 307 307 309 311 312 311 311 310 309 309 310 319 319 319 318 318 319 319 320 320 320 320 320 321 320 321 320 319 318 320 322 321 323 324 324 324 324 327 327 327 326 326 324
314 310 307 307 310 312 312 311 311 309 310 309 311 319 320 319 317 318 319 319 320 321 321 320 320 322 322 322 319 319 318 320 321 321 321 324 323 321 323 326 326 325 324 322 321
315 311 307 308 311 312 312 311 318 320 316 316 318 316 319 319 319 318 319 318 320 322 323 321 322 322 322 321 321 320 320 321 320 320 319 319 320 320 322 325 326 326 325 323 322
315 312 307 308 311 312 312 318 319 321 323 322 315 318 318 319 319 318 319 319 321 322 322 323 321 321 321 321 321 320 321 321 319 318 318 319 319 321 322 323 326 327 326 326 324
316 312 307 309 312 312 312 311 317 320 323 322 320 314 317 319 319 318 318 318 320 321 321 323 321 322 321 320 319 320 323 323 322 319 318 319 318 321 322 322 324 326 327 327 326
317 313 307 310 312 315 315 312 316 318 326 321 320 316 317 319 319 318 318 318 321 320 322 322 322 322 322 319 320 322 323 322 322 322 319 323 323 322 322 323 324 324 325 327 327
318 313 307 310 318 319 319 316 318 321 330 320 319 317 319 319 319 318 319 318 320 320 321 324 322 322 323 322 322 322 323 323 322 321 324 322 323 325 323 323 325 327 326 326 327
318 314 308 311 312 317 320 320 323 329 325 318 318 318 319 318 319 319 318 319 319 320 321 322 321 322 322 322 321 323 323 323 322 323 326 323 325 325 324 325 325 325 326 327 328
318 314 307 312 315 314 320 322 327 326 319 319 318 319 319 319 319 318 319 319 319 320 321 321 320 322 322 322 322 322 322 326 328 329 328 321 322 323 324 325 326 326 326 327 328
317 314 308 310 318 320 321 326 326 320 322 319 318 319 319 319 319 318 319 318 319 319 320 321 323 322 322 321 324 323 322 328 328 329 327 324 323 324 324 323 324 326 325 328 330
316 314 309 310 315 319 323 326 323 322 320 321 319 319 320 319 319 319 318 318 319 319 320 322 323 322 322 321 323 323 322 323 323 329 332 321 318 325 324 324 324 325 326 328 328
315 313 310 311 314 319 324 324 323 322 321 320 319 319 319 319 318 319 319 319 318 319 322 323 325 323 322 321 321 321 321 324 322 323 323 320 320 326 323 323 324 326 327 328 327
314 313 312 312 314 319 324 323 323 322 321 320 319 319 319 319 319 319 318 319 319 321 322 321 323 324 322 322 319 323 323 320 319 325 327 328 321 320 321 322 323 325 327 327 326
312 315 312 313 318 316 322 321 321 323 321 321 320 320 319 321 320 318 318 320 320 321 322 322 323 325 323 322 322 321 322 323 332 324 325 329 323 320 320 321 321 322 325 326 326
312 315 317 315 319 319 318 321 321 322 322 321 321 320 320 321 321 320 320 324 323 321 322 323 323 324 322 322 323 321 320 320 322 325 324 331 324 319 319 318 319 319 322 324 325
314 319 320 319 316 317 320 321 322 322 321 321 321 320 320 322 322 322 321 323 322 323 319 322 322 321 323 320 322 324 322 321 322 329 324 323 320 319 319 319 318 318 318 320 323
314 317 319 320 321 318 323 321 322 323 320 321 321 320 321 321 322 321 321 324 322 320 320 322 320 320 319 320 321 322 322 321 321 322 324 323 320 319 320 319 318 318 318 318 319
315 318 318 319 319 319 320 324 323 322 321 322 322 321 321 321 320 321 322 325 323 322 323 322 324 323 324 322 321 321 320 319 319 320 319 319 320 320 319 318 318 317 316 316 318
313 317 319 319 321 319 323 324 324 323 321 321 322 322 323 324 324 325 324 324 323 325 324 324 326 327 326 320 318 319 320 319 319 319 320 320 321 319 319 318 317 317 316 316 317

GFSSW_850_thetae_045.txt.gz
Theta_e
310 308 308 307 308 308 309 309 310 310 311 311 311 311 311 311 310 308 309 312 314 315 312 311 317 317 315 315 316 316 311 313 313 330 331 327 328 326 324 329 334 334 333 333 333
309 309 307 307 307 308 308 309 310 310 311 311 311 311 311 310 308 312 318 315 312 312 312 311 317 317 316 316 316 314 311 314 319 327 327 325 326 328 329 328 334 336 335 333 334
309 309 308 307 307 307 308 309 310 311 311 311 311 311 310 308 312 319 317 318 315 314 311 312 315 315 317 316 316 315 314 315 321 326 325 323 324 326 327 325 324 334 332 332 333
311 308 308 307 307 307 308 309 310 311 311 311 311 310 309 308 322 319 318 316 315 312 311 313 317 317 315 312 315 314 316 317 325 326 325 323 327 326 326 325 324 331 331 333 333
313 309 308 307 307 307 308 309 311 311 311 311 311 309 308 313 313 319 319 317 316 312 313 316 317 317 314 315 316 315 316 318 325 325 326 325 325 326 326 323 324 328 329 333 332
316 311 308 307 307 307 308 310 311 311 311 311 310 309 309 318 317 317 318 318 316 314 316 317 317 317 317 317 318 319 317 318 320 323 325 326 325 324 324 323 324 324 327 334 333
319 313 309 307 307 307 309 310 312 311 311 310 309 308 309 309 316 318 320 319 319 317 318 318 318 318 318 318 320 319 316 318 320 323 323 324 325 326 326 326 332 332 333 335 333
321 316 310 308 307 307 309 311 312 311 311 309 308 309 310 311 315 318 320 321 320 319 319 319 319 319 319 319 320 318 316 317 320 321 323 323 324 321 327 333 334 334 334 334 331
322 318 312 308 307 308 310 312 311 311 310 309 309 322 317 320 317 316 318 319 320 321 320 320 320 320 320 318 318 316 316 319 321 320 323 322 322 321 328 333 332 332 331 328 325
321 320 314 308 307 308 310 312 311 311 309 310 310 315 316 316 318 316 318 319 319 320 320 320 320 318 317 317 319 318 318 317 319 319 321 320 319 319 326 330 330 330 330 327 325
319 321 315 309 307 309 311 312 320 322 316 312 315 309 313 318 319 317 318 319 319 321 321 321 319 318 318 319 320 319 318 317 318 318 318 321 319 319 323 325 324 326 327 326 324
317 321 316 309 307 309 312 312 319 318 321 321 322 322 316 318 319 319 319 318 318 321 322 321 321 321 321 321 320 320 320 320 320 317 316 315 317 317 320 323 325 324 323 324 322
317 318 317 310 307 309 312 312 311 316 321 321 319 321 317 317 319 319 318 318 318 320 321 322 321 321 321 321 321 323 322 321 321 321 317 316 315 317 318 322 325 325 323 322 321
316 319 317 310 308 319 318 319 311 318 322 323 320 321 316 314 319 319 319 318 318 321 321 322 321 322 322 322 321 323 322 322 321 321 320 320 319 321 318 320 322 325 325 325 323
317 319 317 310 313 318 319 317 317 320 324 323 321 318 314 316 319 319 318 318 319 319 321 323 322 321 322 322 321 321 321 322 323 323 322 321 319 319 320 319 320 321 325 325 325
316 318 316 310 308 317 320 322 319 326 325 322 319 317 318 318 319 319 318 318 319 319 320 319 320 321 321 322 321 322 321 322 323 323 322 322 321 322 320 321 323 323 325 325 326
313 318 318 312 307 318 317 321 323 327 320 319 317 317 318 318 318 318 318 317 316 318 322 320 320 321 321 320 321 321 321 324 323 323 324 323 322 322 322 321 322 321 322 324 328
314 317 318 313 311 319 315 322 326 321 321 320 317 318 318 318 318 318 317 316 316 316 318 321 322 321 321 321 323 321 323 321 327 327 323 323 324 322 321 321 322 323 322 323 327
312 316 316 316 314 318 320 325 320 322 319 321 318 318 318 318 319 317 316 316 316 316 316 323 323 323 322 322 321 323 323 323 324 323 319 319 318 321 321 322 322 323 323 328 329
308 314 315 317 309 317 321 320 321 321 321 321 320 318 318 318 318 317 317 317 317 316 318 322 324 322 322 322 320 321 320 321 319 319 320 319 320 323 322 323 322 323 327 329 329
307 313 313 316 310 316 318 320 320 320 320 323 320 319 319 319 318 317 318 318 317 319 320 320 320 322 321 324 320 321 320 320 319 320 320 320 318 318 320 320 321 323 328 328 328
311 313 314 313 315 315 317 317 319 320 321 322 321 321 319 318 320 317 318 318 319 320 321 321 320 323 324 321 320 319 320 322 317 320 319 315 317 317 317 318 320 323 327 327 327
311 313 314 312 312 314 315 316 318 320 320 322 321 320 320 319 322 319 318 323 322 320 321 322 320 321 322 321 321 320 320 319 320 319 320 315 316 315 316 316 319 320 325 327 327
312 314 315 315 310 312 315 316 317 318 320 321 322 321 320 319 320 321 323 323 322 319 319 322 322 320 318 317 318 321 321 319 319 316 318 317 319 317 315 314 316 318 319 325 326
312 313 316 318 315 313 314 315 318 320 319 321 322 320 320 320 320 321 323 322 322 320 320 320 320 319 318 320 320 320 320 320 320 320 318 318 319 317 316 314 315 317 318 318 320
312 315 317 318 317 317 314 316 318 319 320 322 322 321 319 320 319 320 323 323 322 320 320 320 320 320 322 321 318 317 317 318 317 317 318 317 317 316 316 316 316 316 316 317 317
309 314 316 318 317 318 316 317 317 320 321 321 320 321 319 320 321 324 321 322 321 321 319 321 320 316 321 314 315 312 315 316 317 317 316 316 315 313 313 314 315 316 316 316 316

GFSSW_850_thetae_048.txt.gz
Theta_e
308 309 310 308 308 307 308 308 309 310 310 311 311 311 311 311 310 309 311 313 313 313 313 312 312 317 317 315 315 315 311 311 312 323 329 328 327 328 327 327 333 334 332 332 333
310 308 309 309 308 307 308 308 309 310 310 311 311 311 311 310 309 317 317 316 313 312 312 312 312 315 316 315 316 312 310 312 312 323 327 327 326 326 327 327 332 332 333 331 330
313 310 308 309 308 307 307 308 309 309 310 311 311 311 310 309 312 319 316 317 316 312 312 311 312 314 314 316 315 314 312 312 314 322 326 324 323 326 325 325 329 331 333 331 330
319 314 309 308 308 307 307 308 309 310 311 311 311 311 310 309 318 318 319 316 316 313 313 311 314 316 315 313 313 313 314 314 316 325 323 321 325 325 325 323 333 331 329 328 330
322 319 312 308 308 307 307 308 309 310 311 310 311 310 309 309 310 316 319 317 315 314 312 315 317 317 315 314 314 313 314 316 320 325 325 326 325 325 323 324 330 325 327 326 328
322 322 316 310 308 307 307 308 309 311 311 311 311 309 308 315 313 317 319 319 317 315 314 315 317 317 316 315 316 319 318 319 323 325 324 323 324 323 323 328 329 325 329 328 328
321 322 320 312 308 307 307 308 309 311 311 311 310 309 308 310 311 316 320 320 318 318 317 318 318 317 318 316 319 319 316 317 321 324 324 323 324 324 325 324 329 329 329 330 331
318 321 321 316 309 307 307 308 310 311 310 310 309 308 309 310 314 315 318 321 320 320 320 319 319 319 319 319 318 318 314 316 317 320 323 321 321 321 323 324 325 325 328 331 331
318 319 322 318 310 307 307 308 310 311 310 309 308 313 315 318 313 317 320 319 319 320 320 320 319 319 319 317 316 315 314 318 319 320 322 320 319 321 326 327 332 332 333 333 332
318 317 320 319 312 307 307 309 311 313 314 311 310 311 313 315 318 314 318 318 318 320 320 320 319 316 315 315 319 317 317 316 318 319 322 321 318 317 328 331 333 333 334 332 332
318 316 317 321 314 307 307 310 314 321 318 318 312 309 310 315 318 318 317 318 318 320 318 321 318 319 318 317 319 319 318 318 317 316 321 322 318 317 327 331 329 332 328 325 330
317 316 317 320 316 307 307 310 315 314 315 317 318 319 319 320 318 319 318 317 318 320 321 319 319 320 320 320 320 319 320 319 317 318 318 317 317 316 324 329 329 329 328 325 325
314 316 316 319 317 307 309 314 316 313 317 317 316 315 317 318 319 318 319 318 318 320 321 319 319 319 321 319 320 320 321 320 320 319 315 313 314 316 318 324 326 328 329 326 325
313 316 316 317 315 307 319 319 312 316 319 321 322 319 317 316 314 318 318 318 316 320 319 319 319 320 320 321 320 320 320 321 321 318 317 316 313 317 316 318 322 323 324 325 323
312 314 317 318 310 313 319 319 316 320 312 317 320 319 317 314 318 318 318 318 316 319 319 320 320 321 321 320 321 320 318 320 321 320 320 320 317 316 315 317 322 322 321 323 324
312 313 317 317 316 312 319 319 318 321 317 322 320 316 313 313 316 318 318 318 318 317 319 318 319 320 320 321 321 319 319 321 320 321 321 320 318 317 318 317 318 322 322 322 321
309 314 316 317 316 308 316 320 322 323 319 320 317 314 315 316 317 317 317 316 315 317 319 319 319 320 321 321 319 320 319 320 319 320 321 321 320 318 319 318 319 319 322 324 323
307 313 316 317 314 314 317 321 322 319 320 319 316 315 316 317 317 316 315 315 314 316 318 319 320 321 321 320 321 321 319 318 322 323 321 321 322 321 318 320 321 321 321 322 325
305 310 315 315 314 315 319 321 316 320 318 317 316 316 316 317 317 316 314 314 314 314 315 321 322 321 320 321 321 321 321 320 321 321 319 320 317 319 320 321 321 320 321 321 323
304 310 313 315 315 311 318 319 319 319 320 320 318 316 317 317 316 315 315 315 316 314 314 318 323 322 322 321 320 319 318 321 320 320 320 317 318 321 322 323 322 321 322 325 327
304 310 311 314 315 310 317 317 318 317 318 322 322 319 317 317 316 316 317 316 315 316 316 318 319 320 320 322 320 318 318 318 317 317 319 318 316 313 319 320 321 321 324 328 329
305 309 310 314 312 312 316 316 315 317 318 320 322 322 318 317 317 316 316 316 318 319 319 318 319 320 319 320 319 319 319 320 316 317 316 313 315 314 316 317 321 322 325 327 327
305 309 312 313 313 310 313 315 315 317 319 319 322 321 318 317 318 317 316 320 321 318 318 319 319 320 321 320 320 321 319 318 318 314 317 314 316 314 314 315 318 322 324 326 327
306 310 313 314 314 311 312 315 316 315 315 316 319 320 320 319 318 318 321 322 321 319 319 319 318 318 319 318 317 320 320 317 316 314 316 315 317 317 316 313 313 318 320 326 327
308 309 312 314 314 312 311 313 316 315 315 318 319 319 320 319 318 319 322 321 320 318 319 317 318 317 317 318 319 319 319 319 318 317 316 316 316 316 315 313 312 315 316 320 325
307 311 312 314 312 313 311 312 314 314 315 316 320 320 320 319 317 318 322 320 319 319 318 317 317 318 319 317 316 317 316 315 316 317 317 317 316 310 313 314 314 314 316 316 318
305 310 313 312 313 313 313 312 313 313 314 313 318 319 320 319 318 318 321 320 319 317 318 318 317 313 318 312 314 313 315 315 316 315 315 314 313 311 311 311 313 315 315 316 317

GFSSW_850_thetae_051.txt.gz
Theta_e
311 309 308 309 309 309 308 308 308 308 309 310 310 310 311 311 311 310 314 316 313 312 311 311 311 314 316 315 315 314 309 310 312 313 319 327 327 327 326 328 329 332 330 330 333
316 312 309 308 309 309 308 308 308 308 309 310 310 310 311 311 310 317 317 317 314 313 313 312 311 314 316 315 314 310 308 311 311 314 326 327 326 326 325 331 330 331 330 330 331
321 318 313 309 308 308 308 307 308 308 309 310 310 310 311 310 310 318 317 316 317 313 312 311 311 313 314 314 315 312 311 312 312 316 324 325 323 326 325 328 330 331 331 329 331
323 322 319 313 309 308 308 307 308 308 309 310 310 310 310 309 310 319 318 317 316 314 312 311 313 315 314 313 313 311 312 312 314 321 323 322 323 324 324 324 331 331 332 331 330
322 322 322 319 312 308 307 307 307 308 309 311 310 310 310 309 310 312 317 317 315 314 312 312 316 316 314 313 313 311 315 318 315 324 323 324 325 324 326 331 331 331 328 329 328
321 320 322 322 317 309 307 307 307 308 310 311 310 310 309 310 311 315 319 319 316 314 313 314 316 317 316 314 315 318 317 320 323 324 325 323 323 323 329 330 330 327 329 328 327
317 318 320 321 320 312 308 307 307 308 310 311 310 310 309 310 311 317 319 319 317 315 315 317 317 317 318 315 318 318 315 320 321 323 323 323 322 322 329 328 326 327 329 328 325
316 319 316 319 321 316 308 307 307 309 311 311 310 309 309 310 309 316 317 319 319 319 318 317 318 318 318 318 318 317 313 318 320 322 323 319 320 322 328 328 328 330 328 328 327
314 317 318 317 321 319 310 307 307 309 311 311 310 309 310 312 313 314 317 318 320 319 319 320 318 318 318 316 315 314 312 317 317 319 321 320 318 319 326 328 327 328 330 330 328
310 316 318 317 319 320 312 307 308 310 314 316 312 311 310 314 317 317 316 319 318 318 319 319 318 314 313 314 317 318 316 316 317 318 320 320 318 320 323 325 326 326 327 331 330
303 314 318 317 317 320 313 307 310 317 317 317 312 310 310 313 315 318 315 316 317 319 317 320 316 318 318 317 317 317 316 317 317 316 320 319 319 316 325 331 331 331 331 331 331
301 314 318 316 317 320 312 307 311 314 313 314 314 315 318 319 318 318 318 316 317 317 320 317 317 317 318 319 319 319 319 318 317 317 317 317 319 316 324 330 331 331 332 332 332
299 311 317 316 318 319 311 310 318 315 313 314 315 316 315 315 318 318 318 317 317 319 319 318 318 319 320 319 320 319 319 318 319 317 315 314 315 316 322 328 330 330 331 331 331
298 308 314 317 317 317 310 317 313 313 314 315 321 318 316 316 316 318 318 317 318 317 318 318 318 319 320 320 319 319 318 319 320 317 315 314 314 315 315 324 326 328 327 327 326
297 305 313 316 315 310 318 317 316 317 308 312 320 319 317 316 316 316 318 318 315 318 317 318 319 319 320 319 319 319 318 319 320 319 319 319 317 315 314 320 323 326 326 325 326
298 306 313 316 317 312 318 317 317 315 312 317 319 318 313 313 314 317 317 318 317 318 318 317 319 318 318 320 319 319 319 318 318 318 319 319 317 316 316 315 317 322 325 324 324
300 308 312 315 316 317 311 317 320 316 314 319 319 314 313 312 313 316 315 314 314 317 318 318 318 319 320 319 318 317 317 318 318 319 320 319 319 317 317 316 315 317 321 324 323
301 308 312 314 316 315 313 320 320 317 318 319 315 313 312 314 314 316 315 314 313 314 316 318 319 320 320 319 320 320 317 317 320 320 318 319 323 319 318 318 319 318 321 322 321
303 306 310 314 316 313 317 322 315 316 319 315 315 314 314 316 315 315 313 313 313 313 315 318 319 320 320 320 319 321 320 317 319 318 318 318 316 316 318 320 319 319 319 322 322
303 305 308 313 315 316 316 318 317 317 319 319 315 314 314 315 315 314 313 314 314 313 314 317 318 320 320 320 319 319 317 318 316 320 321 316 316 317 320 320 320 317 319 320 322
303 305 307 312 314 313 315 316 317 316 316 320 322 319 315 315 314 314 315 315 314 313 313 317 316 317 319 319 317 317 317 317 316 314 317 317 317 310 318 318 319 319 321 322 322
303 306 307 310 313 312 313 314 315 316 316 318 319 321 321 315 315 315 315 315 315 315 316 316 315 317 318 318 318 317 318 317 315 317 314 313 314 313 312 315 318 321 322 323 325
302 306 310 309 314 313 311 313 314 316 317 317 319 320 318 316 316 315 315 316 318 315 317 317 317 318 317 316 318 320 319 318 315 312 315 314 315 312 311 313 318 319 322 323 326
303 306 310 311 312 312 312 314 315 314 314 315 316 317 319 319 315 316 316 320 319 317 317 317 317 317 318 317 316 320 319 316 316 314 315 314 316 315 314 313 313 316 319 322 325
304 305 309 311 311 314 312 312 315 315 314 314 314 316 319 320 317 317 321 320 319 316 317 316 317 316 315 315 315 317 317 316 317 315 316 315 315 314 313 312 311 313 314 317 319
304 307 310 310 310 312 312 312 313 315 314 314 314 318 316 318 318 318 320 319 319 318 317 315 316 316 319 316 317 317 316 315 315 315 315 315 315 312 312 312 312 313 315 317 319
303 307 310 309 309 310 312 311 312 314 314 313 313 314 315 318 318 319 318 318 317 317 315 315 315 313 316 312 314 313 314 315 314 314 314 314 312 311 311 311 311 314 316 318 319

GFSSW_850_thetae_054.txt.gz
Theta_e
315 313 311 309 308 308 309 308 308 308 308 309 309 310 310 310 310 311 316 315 313 311 311 310 312 313 315 313 313 312 307 309 311 314 314 327 326 327 326 328 331 331 330 331 333
321 320 317 313 310 308 308 308 307 308 308 309 309 310 310 310 310 316 316 316 316 313 314 313 311 314 316 314 313 309 307 311 311 311 317 326 326 326 326 331 331 330 331 331 332
323 323 321 320 315 310 308 308 307 307 308 309 310 310 310 310 310 317 317 316 316 313 312 311 311 314 314 314 313 309 309 310 312 313 319 325 325 325 326 329 330 331 331 331 331
322 322 322 322 320 315 309 308 307 307 308 309 310 310 310 310 309 320 317 317 316 314 312 311 312 315 314 313 313 311 311 312 312 314 322 322 323 324 323 325 330 330 333 331 330
319 319 322 321 322 320 314 308 307 307 308 309 310 310 310 310 310 310 315 317 315 314 312 312 316 316 314 313 312 309 312 316 316 319 323 322 323 322 328 328 331 333 330 328 329
320 319 317 321 320 322 319 310 307 307 307 309 310 310 310 308 310 310 316 318 316 313 312 315 316 316 316 314 313 315 316 319 321 322 322 323 321 323 328 329 333 331 329 328 327
316 317 318 318 317 321 321 315 308 307 307 309 311 310 309 310 310 316 317 319 317 315 314 314 315 316 317 315 316 317 315 320 322 322 323 321 321 321 329 329 328 326 327 327 327
312 314 315 318 318 316 321 319 309 307 307 309 310 310 309 310 309 315 317 318 318 319 318 316 316 316 317 317 316 315 311 319 319 322 321 318 319 322 330 329 329 326 325 327 326
303 310 315 317 318 316 320 319 311 307 307 309 311 310 310 311 311 311 315 316 319 319 318 318 317 317 317 314 313 312 313 316 319 319 321 319 319 321 329 328 328 328 323 325 326
299 303 313 314 318 318 317 319 312 307 309 312 314 312 313 312 317 316 314 315 318 317 318 318 317 313 313 313 315 318 318 315 316 317 320 321 319 319 327 327 327 327 326 325 326
299 300 307 312 318 318 317 319 308 313 317 315 314 312 310 312 315 317 315 316 316 318 317 319 316 316 316 316 316 316 317 315 314 315 319 318 318 320 323 326 325 326 327 329 328
298 300 303 312 318 318 318 317 309 312 313 313 314 315 317 318 317 317 317 316 316 315 318 316 317 315 316 318 318 317 318 317 315 316 316 316 316 314 321 324 325 325 326 328 329
298 299 307 314 317 317 317 318 310 316 313 312 312 313 313 314 316 317 317 316 315 315 317 317 317 317 319 318 319 318 319 318 318 316 314 314 314 316 318 327 329 328 328 327 329
299 298 307 313 314 316 316 315 316 315 311 312 316 317 315 314 316 316 317 317 317 315 317 317 317 317 318 319 317 319 317 318 318 318 316 313 314 313 315 325 328 329 329 329 329
304 299 306 310 313 313 314 316 313 316 308 310 320 318 316 316 315 316 317 317 316 317 316 316 318 318 318 317 317 318 317 319 318 317 318 317 316 314 313 318 323 327 329 329 329
305 299 307 308 313 313 316 314 316 316 313 312 318 316 316 313 314 315 316 317 316 317 317 315 318 317 316 318 317 317 318 316 316 316 318 317 316 315 314 315 319 323 327 329 329
305 303 306 309 312 314 315 315 319 317 312 315 317 314 313 312 312 314 314 313 314 316 317 317 317 317 319 319 317 316 315 317 319 318 319 318 318 316 315 315 314 315 323 328 330
304 304 304 308 313 313 315 317 318 315 315 316 315 312 312 311 312 313 312 314 312 313 314 316 318 318 318 318 318 318 316 317 320 319 317 316 320 318 316 317 318 318 316 321 327
304 304 304 308 312 314 315 319 314 315 316 316 314 313 312 313 312 314 313 312 311 313 314 316 317 319 319 319 317 319 318 315 317 316 316 316 315 313 316 319 319 318 317 318 320
304 304 303 307 312 314 314 316 316 314 317 319 315 313 312 313 314 312 312 312 313 311 313 315 316 319 319 319 318 318 316 318 315 320 321 315 315 314 315 317 317 318 319 318 319
304 303 303 306 310 313 314 314 315 316 316 317 320 320 313 313 313 312 313 313 312 312 313 314 313 315 318 318 317 317 317 314 314 313 316 316 315 310 313 317 317 317 320 321 319
303 303 304 305 313 313 315 312 314 316 315 316 317 319 320 313 314 313 314 314 313 313 314 315 312 314 317 317 316 315 316 315 315 317 313 312 313 312 310 311 316 318 320 321 323
303 303 307 305 310 312 313 313 313 315 315 315 317 318 318 317 315 314 313 314 314 313 314 315 314 314 314 315 317 319 317 316 313 311 315 313 315 311 310 310 312 316 319 321 322
302 302 308 308 309 310 313 313 312 313 314 314 314 315 318 318 315 315 314 316 316 314 315 315 315 313 315 314 314 319 318 316 315 313 315 313 315 313 313 312 312 315 316 317 320
302 302 308 309 308 310 310 311 312 313 313 314 314 314 317 319 316 316 318 319 317 316 315 314 315 314 314 314 315 315 315 314 315 314 315 315 313 313 312 310 310 312 313 313 315
302 303 307 307 306 309 311 311 312 312 313 313 314 315 314 316 317 318 319 318 317 314 315 313 315 314 317 315 315 317 315 313 314 315 313 314 313 310 311 311 311 312 315 318 319
302 304 308 307 308 306 309 311 311 312 313 313 312 313 313 315 315 316 317 317 316 316 314 313 313 312 316 312 314 314 314 313 313 312 313 314 312 308 311 310 311 313 315 317 318

GFSSW_850_thetae_057.txt.gz
Theta_e
321 320 319 317 314 311 309 308 308 308 308 308 308 309 310 310 311 311 316 316 314 310 313 312 311 313 315 311 313 312 315 314 314 314 317 326 328 327 326 329 330 330 331 331 333
323 323 322 321 320 317 313 309 308 308 307 308 308 309 310 310 311 314 316 316 316 311 312 311 312 314 315 314 313 313 314 315 313 314 316 325 327 326 327 331 330 330 331 332 331
322 323 322 322 322 321 320 314 308 307 307 308 308 309 310 310 310 316 316 316 316 313 312 312 311 313 314 313 312 310 315 313 313 313 314 322 326 324 327 331 330 330 330 332 332
320 321 321 322 322 321 322 319 312 308 307 307 308 309 310 310 309 319 317 316 316 314 312 311 311 314 315 315 312 313 312 312 313 313 316 321 324 325 326 326 325 330 332 331 332
318 319 320 318 317 321 320 321 317 309 307 307 308 309 310 310 311 310 314 317 315 314 312 311 313 315 316 314 312 311 313 315 314 316 319 322 323 324 327 327 330 330 330 331 329
311 317 318 319 319 318 319 320 320 313 308 307 308 309 311 309 310 309 313 318 315 313 312 314 315 315 316 315 315 314 314 318 321 320 322 323 324 323 327 329 329 331 330 330 329
308 311 315 315 316 318 317 317 320 318 309 307 307 309 310 311 310 310 315 318 316 314 313 313 315 316 316 317 315 316 317 318 322 322 323 322 324 323 328 329 329 327 329 328 330
299 303 310 314 313 315 318 316 319 320 313 307 307 309 310 311 310 310 315 317 318 317 315 315 315 316 316 316 316 317 313 319 320 323 321 320 325 324 328 329 329 328 327 327 327
298 299 301 309 314 315 319 317 318 319 316 307 308 310 310 311 311 310 314 316 316 318 318 317 316 316 316 317 317 317 317 317 320 321 322 321 321 324 327 328 328 328 327 328 327
298 298 299 301 311 314 317 317 316 318 313 309 312 312 312 312 315 315 312 313 315 317 317 316 316 317 317 318 319 320 319 318 318 319 321 323 323 325 328 329 328 326 325 326 327
300 298 298 301 308 313 317 317 316 310 314 312 313 312 310 312 314 315 315 315 316 317 319 318 320 320 319 318 318 318 318 318 316 316 322 323 322 321 329 329 328 327 326 325 324
305 302 299 300 306 313 317 317 316 312 313 311 311 314 314 315 316 317 316 316 316 316 318 318 321 319 316 317 318 318 319 319 318 317 318 317 318 317 326 328 327 327 326 325 325
306 304 300 301 311 314 316 315 317 311 314 315 313 311 312 313 315 315 316 315 314 315 319 320 319 316 318 318 319 319 319 319 320 318 315 316 316 317 320 324 326 326 326 326 327
306 305 301 309 307 312 313 314 314 315 315 312 313 313 312 313 314 314 316 315 316 316 317 318 316 317 318 319 318 319 318 319 319 320 320 316 321 316 316 324 326 326 326 326 327
305 305 301 308 313 313 313 314 315 314 312 311 318 316 315 315 314 315 316 315 318 317 318 318 318 318 319 319 318 320 318 320 319 320 320 318 320 320 314 318 323 327 328 328 327
305 305 302 305 312 311 313 315 314 318 316 311 317 317 317 316 313 315 315 316 316 317 317 316 316 317 318 318 317 317 319 318 318 319 322 319 320 321 319 318 317 320 326 329 328
304 305 304 304 306 312 314 315 319 318 314 314 319 315 315 315 312 314 315 316 317 319 319 317 317 317 318 319 318 317 319 322 324 324 323 319 320 321 318 317 318 318 320 325 328
303 304 304 303 308 309 313 315 317 314 315 315 314 315 314 311 312 313 314 316 312 315 316 318 318 318 318 319 320 319 320 324 321 322 320 317 322 321 318 316 317 318 317 317 321
302 304 304 303 308 311 314 317 314 314 315 315 312 315 314 311 313 314 315 316 314 315 318 318 317 317 318 319 319 320 321 317 320 317 323 320 319 316 316 318 318 319 319 318 316
302 304 304 302 308 311 313 314 315 314 316 318 318 314 316 313 313 314 314 313 314 313 315 318 318 319 319 319 317 319 317 321 319 322 322 318 317 318 318 319 318 319 319 319 320
302 304 303 303 306 310 313 313 313 315 315 316 319 320 313 313 314 313 314 313 314 312 313 315 317 316 319 320 320 319 319 317 317 318 321 320 319 317 317 318 319 318 318 320 320
302 303 303 303 307 310 311 312 312 313 315 316 317 318 320 314 314 314 314 315 313 313 316 316 317 319 319 317 316 317 320 319 323 320 317 317 319 315 315 313 312 316 317 320 322
303 303 302 302 307 309 310 312 312 314 315 316 316 317 318 318 314 315 314 313 312 314 317 317 316 318 317 317 318 320 318 316 316 316 318 323 321 314 314 315 313 314 315 317 320
302 303 305 304 306 308 310 311 313 312 314 314 315 314 318 318 316 314 315 314 312 313 314 315 316 318 318 318 317 320 319 317 319 321 321 319 320 319 318 316 316 314 314 314 314
302 303 304 306 305 307 309 310 311 313 312 314 315 315 317 317 318 315 317 319 316 315 315 318 318 316 314 313 315 318 319 318 319 320 322 321 316 318 316 316 312 311 313 316 316
301 302 304 307 305 306 309 310 311 312 313 313 315 315 315 316 317 317 316 318 318 315 315 314 317 316 316 314 314 316 315 316 317 316 316 316 316 315 312 311 312 313 317 318 318
301 302 304 306 307 305 308 309 311 311 312 312 313 313 314 315 315 314 315 316 317 317 317 316 316 317 319 314 315 318 317 315 315 315 317 318 319 312 312 312 311 312 315 315 317

GFSSW_850_thetae_060.txt.gz
Theta_e
322 323 322 322 321 320 319 316 311 308 308 308 308 308 309 310 311 311 315 315 313 310 314 313 313 315 315 313 314 314 317 317 317 318 321 324 325 328 329 331 332 333 333 335 333
320 321 322 322 322 322 322 321 318 312 308 308 308 308 309 310 311 311 316 316 315 310 312 313 314 315 317 316 315 317 318 317 318 318 318 319 324 326 330 331 332 332 331 332 332
318 319 320 321 322 322 322 322 321 319 311 308 308 308 309 310 312 316 316 315 315 312 313 314 313 315 317 317 317 317 318 318 318 318 318 319 322 323 326 328 330 333 330 330 330
317 318 318 319 320 318 320 321 320 321 317 310 308 308 308 310 315 317 317 316 315 315 312 313 313 315 318 318 317 317 317 318 318 317 318 320 322 326 327 329 330 333 330 330 329
306 312 316 317 318 318 317 317 319 320 320 314 308 307 308 313 313 312 316 316 316 314 314 313 313 317 318 318 318 318 318 318 319 322 319 322 325 328 329 331 333 332 329 329 328
300 305 307 313 317 317 317 317 317 317 320 319 310 307 308 312 312 310 310 317 315 314 314 313 317 318 318 319 319 319 319 320 323 322 323 326 327 327 330 332 332 331 330 329 328
299 299 305 307 310 314 316 315 316 315 317 320 315 307 308 312 312 310 310 317 315 315 314 314 315 317 319 320 319 319 320 321 325 324 326 326 328 328 329 332 330 331 330 330 329
299 298 299 301 307 311 314 315 315 316 315 320 318 308 311 311 311 310 310 317 316 314 314 314 315 318 319 320 319 320 320 320 325 326 325 326 325 326 330 332 330 330 330 329 329
300 299 298 298 301 304 312 314 317 315 315 318 316 308 313 312 311 310 310 317 317 315 316 316 316 320 320 320 319 319 320 319 324 326 326 327 325 327 330 331 329 329 329 329 330
305 300 299 298 299 303 304 312 315 316 315 314 312 313 312 314 313 314 310 315 317 317 317 318 319 321 321 321 319 318 320 320 320 324 325 325 324 326 330 330 330 328 328 329 329
306 305 300 298 299 302 311 314 316 314 312 313 315 315 312 313 314 316 313 313 315 319 321 321 322 322 320 320 322 321 321 320 320 321 324 324 323 322 328 330 331 328 327 328 328
306 306 304 300 300 302 312 316 316 314 314 314 311 314 314 314 316 318 315 317 317 321 320 322 322 321 321 321 321 322 320 320 321 321 321 322 322 321 324 329 330 329 327 326 328
305 306 306 303 303 306 315 315 315 316 315 315 314 314 313 314 315 317 316 316 318 321 321 321 321 320 321 322 322 322 322 321 321 322 321 321 321 321 323 326 328 329 329 326 326
304 305 305 303 303 309 313 313 314 313 318 315 315 315 313 313 316 315 317 316 318 320 320 321 321 320 321 322 321 322 321 321 321 321 322 321 321 321 321 325 326 328 329 329 327
304 304 305 302 310 313 314 310 315 314 311 313 316 315 315 314 315 315 316 316 318 319 320 320 321 321 321 321 321 321 321 322 322 322 323 322 322 322 320 321 324 326 327 329 329
305 304 305 303 307 312 314 315 315 320 314 313 318 318 317 315 316 316 315 316 317 319 320 320 319 321 321 320 320 321 322 322 323 323 324 322 322 322 321 321 322 322 325 327 328
303 304 305 305 307 311 313 315 319 316 313 313 320 318 318 315 316 317 317 318 318 320 320 320 320 320 320 322 321 322 322 324 325 325 324 322 322 322 322 322 322 322 323 323 326
301 304 304 305 306 311 313 317 316 310 313 316 317 318 318 316 316 317 318 318 318 318 319 320 320 320 321 321 322 323 323 323 322 323 322 321 321 321 322 321 321 323 322 321 321
300 304 303 304 304 309 313 317 311 312 314 313 316 320 317 315 316 318 318 318 318 319 319 320 319 320 321 321 322 323 323 322 325 324 325 322 321 321 321 321 323 322 322 323 321
300 303 303 304 303 307 312 313 312 313 314 318 315 319 320 314 316 317 318 318 319 318 319 320 320 320 322 322 322 323 322 323 324 323 322 322 321 320 320 322 320 320 321 322 323
300 304 304 304 303 305 312 312 312 313 316 317 318 320 317 316 315 318 318 317 318 318 319 319 320 322 322 323 322 322 323 322 322 322 323 322 321 320 320 320 322 323 321 322 323
301 303 303 303 304 306 310 311 311 312 316 317 318 320 321 316 315 315 317 317 317 318 319 320 320 321 321 321 321 322 322 323 323 322 323 323 322 320 321 321 319 320 320 322 323
301 302 303 303 305 306 309 311 311 313 314 316 317 317 320 321 317 316 316 317 316 318 319 319 320 321 320 320 321 321 321 321 322 322 322 327 322 321 320 320 320 319 319 319 321
302 304 304 304 304 306 308 310 311 310 313 315 316 316 317 319 320 318 317 316 315 318 318 319 320 320 321 319 319 320 321 321 321 323 321 322 321 320 321 321 321 320 319 318 317
302 306 304 304 306 306 308 309 310 312 312 315 316 317 317 318 320 320 318 320 316 315 317 320 319 320 319 318 318 318 318 319 320 320 320 320 320 321 321 322 321 318 317 320 320
301 305 305 306 305 307 308 310 310 310 312 314 315 316 317 318 319 319 318 320 321 319 319 319 319 320 320 319 318 318 318 318 320 319 321 321 320 321 321 319 317 317 320 321 321
301 304 305 306 306 306 309 308 309 311 312 312 314 315 316 316 315 315 315 316 317 320 321 320 320 321 320 320 319 321 320 319 319 321 321 321 321 321 321 319 318 318 319 319 318

GFSSW_850_thetae_063.txt.gz
Theta_e
322 322 321 323 322 322 322 322 321 320 316 310 309 309 309 310 311 313 317 318 314 312 315 317 316 316 317 317 316 316 318 319 319 319 321 323 323 328 328 328 332 333 334 334 333
316 319 319 321 322 322 322 322 322 322 321 318 311 309 309 309 312 316 316 316 315 311 314 317 317 317 318 318 317 318 320 319 319 320 320 320 322 324 325 322 332 334 335 333 332
313 315 317 319 319 320 321 320 321 321 321 321 317 311 310 309 316 319 316 315 315 311 316 315 316 316 318 318 318 318 319 320 319 320 320 321 321 322 325 323 331 332 334 330 330
303 310 313 316 316 316 319 319 316 317 320 320 320 316 311 310 319 319 316 316 315 314 317 316 315 316 318 320 319 318 318 319 319 319 320 321 322 323 326 330 331 335 333 331 330
299 300 305 309 312 315 315 316 316 315 317 317 320 318 314 316 317 316 313 317 316 315 317 316 315 316 319 319 319 319 319 319 319 320 322 322 322 325 328 332 335 333 331 331 329
300 299 299 302 306 307 311 315 315 314 315 315 316 320 315 316 315 314 311 314 317 317 317 316 315 317 320 320 320 320 320 319 320 321 322 323 324 328 330 333 333 331 331 329 329
303 300 299 299 301 303 305 306 312 311 313 314 313 319 316 316 315 315 311 316 318 317 316 315 317 318 320 321 319 320 320 320 321 323 322 323 324 323 331 332 333 332 332 330 329
305 304 300 299 298 299 301 304 307 309 310 314 314 317 317 313 315 314 314 316 318 317 316 316 317 319 320 320 320 320 320 321 322 323 323 324 326 325 330 331 332 331 331 331 329
305 305 303 300 298 298 299 300 302 309 313 314 315 317 316 314 314 313 313 315 318 317 316 317 318 319 321 321 320 320 320 321 324 323 324 324 326 327 327 329 331 329 329 330 329
306 306 305 303 299 298 298 302 306 308 315 314 316 315 315 315 315 314 314 314 319 318 318 318 319 322 322 322 321 321 319 322 320 324 323 323 324 327 328 328 329 329 329 330 329
306 306 306 305 301 299 299 313 317 319 318 315 316 313 315 315 315 316 314 315 318 319 321 320 322 322 323 323 321 322 321 320 322 322 323 324 325 324 328 328 329 328 328 329 329
307 305 305 306 305 301 303 313 314 317 314 314 315 314 316 316 318 317 314 316 317 321 321 323 322 322 322 321 322 321 322 320 322 321 322 322 325 323 324 328 328 329 327 328 329
305 306 305 305 305 301 309 312 315 316 317 314 313 314 313 314 316 318 316 316 319 320 322 323 323 322 322 321 322 322 322 323 323 324 322 322 323 322 323 326 328 329 327 326 328
304 306 305 305 304 306 312 311 315 317 317 313 317 316 314 313 316 316 317 317 320 320 321 322 322 321 321 322 322 323 322 321 322 322 322 324 324 325 322 324 327 328 329 327 326
302 306 304 304 308 311 314 314 316 318 310 315 317 316 316 315 314 314 317 316 319 320 321 321 321 322 322 322 322 322 323 322 322 324 324 325 322 325 322 321 323 327 329 328 326
300 304 305 304 305 311 315 315 318 318 312 314 318 317 318 316 316 316 315 317 317 319 320 321 320 321 322 321 321 322 322 322 323 324 326 323 324 324 323 321 321 322 325 328 327
301 300 304 306 307 309 314 316 316 314 312 313 319 319 319 318 317 317 317 319 318 319 321 320 321 321 321 322 322 322 322 325 326 329 326 325 323 324 324 322 322 323 322 325 327
302 300 303 305 306 308 312 316 313 311 312 316 318 321 320 318 317 318 319 319 319 318 321 320 322 321 321 322 323 323 323 326 328 328 327 323 322 322 322 321 322 323 323 324 324
302 301 301 304 305 306 307 314 314 312 312 312 317 321 321 318 316 317 318 318 318 319 321 321 321 321 321 321 322 324 324 324 326 324 324 323 322 322 321 321 322 322 322 324 324
302 303 302 304 305 307 307 313 311 311 311 313 314 318 321 318 316 317 318 318 318 318 320 321 321 320 321 321 322 324 324 324 324 326 326 322 322 322 321 323 321 321 321 321 323
302 303 304 305 305 307 308 311 313 310 312 313 315 314 319 319 317 318 318 318 318 318 320 320 321 321 323 322 322 323 325 324 325 326 326 324 323 323 321 321 321 322 320 321 322
303 304 303 304 305 307 308 310 311 311 311 315 319 316 319 320 317 317 318 319 318 319 320 320 321 324 322 321 321 323 323 324 325 324 324 325 325 322 321 321 321 321 321 321 323
303 303 303 304 307 309 307 309 310 312 312 315 317 319 320 321 320 316 317 318 318 319 321 320 320 322 321 322 322 322 323 324 324 323 324 329 324 322 322 321 321 321 321 321 322
302 303 305 306 305 309 308 308 309 309 312 314 315 318 321 322 321 320 318 317 318 319 319 320 320 321 323 322 321 321 321 322 323 326 323 322 322 322 321 322 322 321 321 321 321
301 305 305 307 308 309 308 308 308 309 311 312 315 316 320 320 320 321 319 319 318 316 319 320 320 320 320 320 320 320 320 321 322 322 323 322 321 321 321 322 322 322 322 321 322
301 305 305 307 306 308 308 308 308 309 311 313 314 315 317 320 320 321 319 319 318 319 320 320 321 321 320 320 319 319 319 319 319 319 319 319 320 321 320 319 321 321 321 322 323
302 304 306 307 309 309 310 307 308 309 310 311 312 315 316 319 317 317 317 316 319 321 320 321 323 322 322 320 320 323 320 319 319 320 320 321 321 321 321 321 320 320 321 322 323

GFSSW_850_thetae_066.txt.gz
Theta_e
316 320 320 320 321 321 321 322 322 322 322 321 321 319 314 312 313 313 317 319 319 314 313 318 316 318 317 317 318 317 318 318 320 321 324 323 323 324 325 323 325 328 335 332 331
304 312 316 317 318 320 321 322 321 322 321 321 320 320 319 314 314 315 319 318 317 314 312 319 318 318 318 318 318 317 318 319 321 320 319 321 321 322 326 322 322 321 326 330 330
300 301 307 314 315 317 318 316 317 317 317 316 318 318 318 317 316 322 316 315 316 314 313 318 317 317 318 318 319 318 318 319 319 320 320 320 321 322 322 324 323 320 328 330 331
299 299 300 303 309 312 313 315 315 314 313 313 312 315 315 317 321 319 316 316 315 315 312 318 317 317 318 319 319 319 319 318 318 319 320 320 321 321 325 326 325 324 333 329 329
300 300 299 299 300 303 306 307 311 309 310 313 314 312 312 318 318 318 317 315 317 315 316 318 317 317 317 318 319 320 319 318 319 319 319 321 322 322 328 331 334 334 331 329 329
303 302 300 299 299 299 301 302 303 305 306 309 313 314 317 318 315 316 316 316 315 317 317 318 317 316 317 318 320 320 320 320 319 319 320 321 322 326 325 321 333 333 332 331 331
306 305 303 300 299 299 299 299 300 302 305 307 310 315 317 314 312 317 316 317 318 318 318 317 317 316 319 320 320 320 320 320 320 320 321 321 322 325 324 326 332 331 331 330 330
306 306 306 303 300 299 299 299 299 300 301 304 312 315 316 313 315 317 316 316 317 319 318 317 316 317 319 320 321 321 321 319 320 321 322 322 323 324 323 325 330 332 331 330 330
306 306 306 306 304 300 299 299 299 300 302 307 312 316 316 314 316 314 316 316 316 319 317 317 317 318 319 320 321 320 319 319 321 323 323 325 325 325 322 324 327 330 331 329 330
305 306 306 306 306 304 299 298 300 305 312 314 315 316 315 314 316 316 315 315 316 319 318 317 318 319 320 320 322 322 321 322 320 323 324 322 327 323 324 326 327 329 330 329 329
302 306 306 305 305 305 300 301 314 319 317 318 316 314 313 317 315 315 315 315 316 319 320 318 319 320 321 323 323 323 321 322 323 323 324 322 323 327 326 327 330 328 329 329 327
300 303 306 305 305 305 303 310 311 317 316 316 318 317 316 316 317 316 317 315 316 320 320 320 321 321 321 322 322 322 322 321 322 323 322 321 322 325 327 326 326 327 328 329 328
301 300 305 306 305 305 305 307 311 316 316 312 311 311 314 315 316 317 317 315 318 320 321 321 322 322 322 322 321 321 321 322 324 323 322 322 322 323 323 325 325 327 327 329 329
302 300 301 306 304 307 307 308 310 316 317 310 313 315 312 314 314 315 318 315 317 318 319 321 321 323 322 322 322 322 321 323 322 322 322 323 324 325 324 323 326 326 327 326 328
302 301 302 306 307 310 312 313 315 317 311 313 315 317 316 314 314 315 316 317 317 319 319 321 321 322 322 321 322 323 323 324 322 322 323 324 326 325 323 323 323 326 327 326 326
304 301 301 306 305 308 314 315 315 317 310 313 318 318 317 315 314 315 317 318 317 318 320 320 321 321 322 321 322 322 322 323 323 323 325 324 325 325 324 324 323 326 328 329 327
303 302 301 305 306 306 309 312 316 312 310 311 318 318 317 318 316 316 317 320 318 318 320 320 320 321 321 321 322 322 322 325 327 328 328 325 325 326 324 324 324 323 327 328 328
302 302 301 304 305 307 308 311 314 311 311 316 315 319 319 319 318 318 318 318 319 317 319 320 321 321 321 321 322 322 322 326 329 330 331 326 325 323 324 323 322 322 322 325 327
302 302 303 302 305 306 308 312 312 312 312 312 316 319 321 320 319 319 319 319 318 318 319 320 320 320 321 321 321 324 325 324 329 328 332 326 325 323 323 321 321 322 323 324 324
302 303 303 302 304 307 308 309 310 311 311 313 313 318 320 320 319 318 319 319 318 318 319 319 323 321 321 321 321 321 324 326 327 330 327 322 322 324 322 322 322 321 322 323 324
303 303 304 304 304 307 309 309 310 310 311 312 312 313 314 319 319 318 318 318 319 319 319 320 322 323 322 321 321 321 324 326 325 325 329 331 326 324 323 322 321 323 321 321 322
303 305 304 304 306 306 307 309 308 308 310 312 313 313 315 316 319 318 318 319 318 318 319 320 322 324 322 321 321 321 323 326 328 327 327 329 326 323 323 322 322 321 321 321 321
303 303 304 304 307 306 308 307 309 309 311 313 313 314 318 320 319 320 318 319 318 318 319 320 320 323 323 322 322 320 322 323 325 326 327 330 326 323 322 322 321 321 321 321 321
302 304 305 305 306 308 308 308 308 307 310 312 313 314 317 319 320 321 319 318 318 320 317 320 322 322 325 325 322 321 321 324 325 328 327 327 325 325 322 323 322 321 321 321 321
302 305 306 307 306 308 307 308 309 308 308 311 313 313 316 318 319 320 320 318 318 318 319 322 323 322 320 321 321 322 321 320 320 323 326 325 322 322 322 322 322 323 322 321 321
300 305 305 307 306 307 308 309 309 308 309 309 313 314 316 318 318 317 318 319 319 318 319 321 323 322 323 321 321 321 321 321 320 320 321 322 322 322 321 320 320 322 322 322 322
301 304 306 306 308 307 309 310 308 309 308 309 310 314 315 315 318 318 317 318 319 321 320 321 322 322 323 321 320 320 321 320 320 321 321 321 321 321 320 321 321 320 320 321 324

GFSSW_850_thetae_069.txt.gz
Theta_e
300 301 307 313 317 317 315 317 319 320 319 321 321 320 319 318 318 317 316 316 318 319 313 314 314 313 317 317 317 317 311 312 313 316 320 323 321 323 324 323 322 326 326 329 328
300 300 300 302 305 310 314 315 315 314 310 309 317 315 314 315 315 316 319 319 318 317 315 316 319 318 318 317 317 315 310 313 315 316 317 319 322 321 324 322 322 328 329 331 329
300 300 299 300 300 301 306 309 309 309 310 307 308 311 310 311 313 321 316 314 317 316 314 315 319 318 317 317 317 317 313 315 316 317 318 317 319 325 321 323 322 324 329 329 329
302 300 300 300 299 300 300 301 303 305 305 304 304 310 310 308 318 319 317 318 315 315 313 314 318 318 315 314 317 315 317 317 317 317 317 316 320 323 322 321 330 325 331 331 329
306 303 301 301 300 300 299 300 300 301 302 302 303 308 311 313 315 312 317 316 316 316 314 313 317 318 315 315 316 316 316 318 319 318 318 318 323 326 323 323 322 329 331 329 329
307 306 304 302 301 300 299 299 299 300 300 302 305 310 313 316 310 315 317 316 316 314 316 315 317 318 317 315 315 319 318 318 319 319 319 318 322 325 323 322 321 329 330 328 328
307 307 306 305 302 300 300 299 299 299 300 300 306 314 316 306 308 316 317 317 317 316 317 316 317 317 317 315 319 319 318 317 317 318 317 319 320 323 322 322 326 332 330 330 328
304 306 306 305 305 302 300 300 299 299 299 300 305 313 315 305 306 308 315 317 316 317 318 318 318 317 316 318 318 318 317 317 317 317 318 320 321 322 325 328 331 331 330 330 330
302 304 303 306 305 304 301 300 299 299 300 304 307 314 316 315 315 313 313 317 316 316 318 319 317 317 317 316 316 317 317 317 317 318 320 319 323 322 323 326 327 331 331 330 330
301 300 303 304 305 305 304 300 299 299 306 315 314 313 311 314 313 316 315 315 316 316 318 318 317 315 315 315 318 318 321 318 317 320 322 322 322 323 323 324 326 328 329 330 330
302 300 300 305 304 305 304 302 307 315 317 317 316 309 309 313 316 316 316 315 315 315 318 318 315 316 315 316 318 319 320 319 319 321 322 321 322 323 323 325 325 324 327 329 329
304 302 300 300 304 305 304 304 305 311 312 315 315 318 318 312 316 316 315 315 315 314 318 318 317 317 317 318 320 321 320 319 321 321 321 318 317 324 323 323 323 326 327 328 328
299 302 301 300 303 303 304 303 301 303 311 314 313 314 314 313 317 315 316 315 314 314 318 319 319 318 319 319 320 320 320 319 321 321 320 319 318 324 324 324 324 326 328 328 329
302 297 302 301 301 308 307 310 309 309 314 312 312 311 312 311 316 313 316 316 314 314 317 318 319 320 320 320 320 320 320 320 323 321 320 319 320 322 321 324 324 326 328 328 328
302 303 301 301 303 307 310 311 312 312 312 309 310 314 313 311 314 314 312 316 314 315 317 319 320 320 320 321 321 320 323 322 323 321 320 320 322 325 322 322 322 321 327 328 327
302 302 303 301 302 301 306 309 312 315 313 311 316 317 316 312 313 314 313 314 316 314 316 317 318 318 320 321 320 320 321 322 321 320 320 321 326 325 321 321 322 322 326 327 327
303 302 303 302 301 304 307 308 314 312 309 308 318 317 317 314 313 314 313 314 315 315 315 316 317 318 320 319 320 320 320 321 322 321 321 325 326 323 324 322 321 321 325 325 328
304 302 302 303 300 305 307 308 313 311 310 311 314 317 317 316 314 314 313 314 315 316 316 317 318 318 319 319 320 319 319 322 325 325 327 326 326 321 321 322 322 323 326 327 325
304 303 302 303 301 304 307 310 308 309 309 310 310 313 317 317 318 315 314 315 317 317 316 317 318 319 318 320 320 321 320 321 327 326 328 329 324 321 320 319 319 321 325 327 327
304 304 303 303 301 305 307 309 308 308 310 310 310 312 319 319 318 317 317 317 316 317 317 318 320 319 319 319 319 319 322 324 328 329 332 328 326 322 322 322 318 318 320 323 325
304 304 303 303 302 303 306 306 308 308 309 310 310 311 312 313 319 317 318 317 316 316 317 316 318 319 319 320 320 319 319 323 326 326 325 325 324 321 321 322 318 317 321 323 323
305 304 303 303 304 304 305 305 306 307 308 308 309 310 312 312 313 317 318 317 317 317 316 316 320 320 318 318 320 319 320 324 325 326 325 321 323 321 319 320 319 319 321 321 322
304 303 303 303 305 304 305 305 306 307 308 308 308 309 311 312 313 319 318 318 318 316 317 318 320 321 320 320 320 319 320 320 324 324 325 321 322 320 319 320 320 319 321 321 321
302 303 304 304 304 303 304 305 307 306 308 308 308 308 310 313 313 320 321 318 318 317 317 318 319 320 320 322 321 321 320 319 321 320 322 322 323 322 322 320 320 320 320 321 321
300 303 304 307 305 305 304 305 306 307 306 308 308 309 309 313 315 317 321 321 317 317 317 317 318 318 318 321 322 321 320 319 321 323 323 323 323 321 319 318 319 321 320 320 321
300 304 304 304 306 305 305 307 307 307 307 307 308 308 310 312 314 318 319 319 318 316 316 317 319 318 319 320 320 322 321 319 319 318 319 322 322 320 319 319 320 322 321 321 321
301 303 304 304 305 305 305 306 308 307 307 307 307 307 309 310 316 317 315 317 317 318 316 318 319 320 320 319 320 320 319 320 320 318 318 317 317 318 317 317 318 320 322 322 322

GFSSW_850_thetae_072.txt.gz
Theta_e
300 300 300 300 301 302 306 309 308 307 308 307 307 307 311 313 316 315 316 318 316 318 317 312 311 311 313 315 316 316 311 311 312 312 313 316 320 323 324 322 326 327 326 327 327
301 300 300 300 300 300 301 302 303 303 302 303 303 304 306 309 309 313 317 313 318 317 317 314 315 316 317 317 317 313 309 312 312 312 314 316 320 320 324 324 324 328 327 328 328
303 301 301 300 300 300 300 300 300 301 301 302 302 302 303 307 307 314 318 317 315 317 316 314 316 318 317 318 316 314 313 315 315 315 314 316 323 322 323 324 324 325 328 328 329
307 305 304 301 300 300 300 300 300 300 300 301 302 302 303 306 309 319 317 317 317 315 316 314 313 317 314 313 315 314 315 315 316 316 315 315 323 324 323 326 326 325 327 329 329
308 307 306 305 303 300 300 300 299 300 300 300 301 303 305 309 309 310 313 311 316 316 315 314 314 317 315 314 314 313 313 316 318 318 317 317 324 325 324 325 327 328 330 330 330
304 307 307 306 304 303 300 300 300 299 299 299 301 309 314 312 308 310 312 313 317 315 315 315 312 315 317 315 313 315 316 317 318 318 317 317 323 323 322 321 326 330 329 328 328
301 304 303 306 306 303 301 300 300 299 299 299 301 309 313 306 306 307 315 317 316 317 317 314 316 316 317 315 317 317 317 315 316 317 317 319 319 323 322 322 328 329 329 329 327
299 301 303 304 303 304 301 300 300 300 299 298 302 309 308 305 305 306 309 316 316 316 317 317 317 316 317 317 316 316 316 316 315 316 317 316 316 321 322 323 329 330 330 326 327
302 300 300 302 304 302 304 300 300 300 299 300 304 309 310 310 313 314 311 310 315 316 316 316 318 318 317 314 313 315 315 316 317 318 316 316 318 321 325 327 330 330 329 326 329
303 303 301 300 300 303 302 301 300 300 299 305 312 312 308 308 315 315 315 312 314 316 316 316 317 314 312 312 315 315 317 317 316 316 315 320 320 320 324 326 330 330 330 330 329
299 303 304 301 300 303 302 301 304 313 313 312 315 313 308 311 313 314 315 315 314 314 314 317 315 316 314 313 315 316 316 316 317 318 321 320 319 321 320 323 325 328 329 330 329
302 298 304 302 301 300 303 302 303 306 305 305 310 314 314 313 317 313 315 315 314 313 315 316 317 317 315 315 316 316 317 317 318 319 319 317 317 320 322 323 325 328 328 328 328
303 303 299 300 301 300 303 305 309 308 306 308 308 311 310 311 317 313 314 315 313 313 315 317 318 317 316 316 316 317 317 318 318 319 318 318 317 323 322 323 324 325 325 327 328
303 303 303 298 300 305 308 308 308 309 307 308 312 309 310 312 315 311 308 315 313 314 313 315 317 318 317 317 317 318 318 318 319 320 320 317 318 321 321 322 323 323 324 326 327
304 303 302 301 300 306 308 307 308 309 299 305 309 309 311 312 311 314 311 313 313 313 313 316 318 318 318 318 319 319 319 320 321 321 319 319 319 319 319 320 321 322 324 326 327
304 303 303 303 302 298 302 305 309 312 306 308 311 311 312 312 311 313 314 314 315 313 313 314 316 317 318 319 318 319 320 320 318 318 320 319 321 320 320 320 320 324 325 326 327
304 304 303 303 303 302 303 308 311 310 307 307 314 315 312 311 311 312 312 313 314 313 314 313 314 316 316 317 318 319 317 320 320 320 320 324 324 321 319 319 319 324 326 327 327
305 304 304 302 303 302 305 309 311 309 308 309 309 309 315 312 310 312 312 310 311 314 313 314 315 314 316 316 318 318 318 320 322 322 322 324 324 322 319 320 321 322 326 327 326
305 305 304 303 303 302 303 306 308 307 310 309 308 308 310 315 313 312 311 311 311 313 315 314 315 316 317 317 318 319 319 319 324 325 324 324 325 320 319 319 318 319 323 325 325
305 305 304 303 302 302 304 306 306 306 307 308 310 310 310 313 313 313 313 313 313 313 314 315 316 316 317 318 318 319 320 324 325 327 327 326 325 322 321 321 317 318 322 323 325
304 305 304 304 302 302 304 305 306 305 306 308 307 309 309 310 311 312 315 316 313 314 315 316 316 316 318 318 318 318 319 322 325 325 325 323 321 318 320 319 317 315 321 325 324
304 304 304 304 303 303 302 305 305 306 306 306 308 308 309 309 311 313 313 315 315 314 316 316 316 317 317 318 318 317 319 319 323 327 325 319 321 319 317 318 317 317 321 323 324
304 301 303 304 304 304 303 303 304 305 305 306 307 308 308 308 310 314 313 316 316 315 315 314 316 318 317 318 318 317 318 319 322 322 324 322 321 318 317 319 318 316 320 322 321
303 302 302 303 304 304 304 303 304 304 304 305 307 307 307 307 309 313 314 318 318 317 315 315 317 316 317 317 319 319 319 319 321 321 322 322 323 321 318 318 317 318 319 321 321
301 301 304 305 304 304 304 304 304 306 305 306 305 307 308 308 309 314 318 318 319 317 317 316 317 316 317 318 319 318 319 320 320 320 321 322 322 320 318 318 317 319 319 319 321
299 301 303 304 304 304 305 304 305 305 305 306 306 307 308 308 308 310 317 317 320 317 317 315 317 317 318 318 318 319 319 320 320 317 320 320 321 319 320 320 318 319 320 319 319
303 302 304 304 305 305 304 304 304 305 305 305 306 305 305 306 307 314 316 316 317 316 316 316 317 316 318 318 319 319 319 320 320 319 318 318 319 319 319 317 316 318 320 321 319

GFSSW_850_thetae_075.txt.gz
Theta_e
303 301 300 300 300 300 300 300 301 301 301 302 302 302 303 303 307 310 313 315 317 316 316 312 310 312 313 313 315 315 310 309 312 312 312 313 318 322 325 325 327 327 326 327 327
306 305 302 301 300 300 300 300 300 300 301 301 301 301 302 303 304 309 313 315 315 317 318 314 313 312 313 316 315 311 309 311 311 311 314 314 318 321 322 322 324 326 324 328 329
309 307 306 303 301 300 300 300 300 300 300 300 301 301 301 302 304 310 316 316 316 318 317 316 314 318 316 316 315 312 312 312 314 315 314 312 316 321 322 323 323 324 324 328 329
307 306 307 306 304 301 300 300 300 299 299 299 300 300 301 302 306 317 317 316 315 316 316 315 312 315 314 313 314 313 313 313 315 315 314 311 317 322 322 322 325 324 325 327 330
302 306 303 306 305 302 301 301 300 300 299 299 299 300 301 306 305 307 314 316 313 315 315 315 312 315 315 314 313 312 313 315 316 317 317 316 322 323 323 325 325 325 327 328 327
300 302 305 303 304 303 300 300 301 300 300 299 298 299 306 310 307 308 308 307 308 311 315 314 312 313 316 315 313 314 314 315 316 317 317 319 322 323 323 325 322 327 328 330 328
300 299 301 304 303 303 301 300 299 300 300 299 298 302 308 304 306 305 305 313 313 315 314 315 314 314 316 315 316 316 315 313 314 316 315 318 320 322 322 323 321 328 329 330 328
302 303 301 300 300 302 300 299 300 300 300 300 299 305 307 303 303 305 305 306 313 316 316 317 316 315 315 316 315 314 314 315 314 315 316 316 315 314 321 322 323 329 329 328 327
298 301 304 302 300 298 298 299 300 301 300 300 301 307 306 304 307 312 315 311 308 316 316 315 316 316 316 313 312 312 311 314 314 315 316 315 315 315 322 321 324 329 329 328 327
300 298 299 303 302 298 298 299 300 301 300 300 308 308 303 304 309 315 315 315 311 314 315 315 315 313 311 312 315 312 315 314 315 315 315 315 314 319 322 322 326 329 329 329 328
303 303 300 302 304 298 298 301 301 309 309 304 308 306 305 310 312 314 315 315 312 315 314 315 314 316 315 313 313 314 315 315 314 315 317 316 316 318 319 324 324 328 329 328 329
303 304 303 299 302 298 298 303 304 303 305 305 307 308 308 307 313 311 312 314 313 313 312 315 315 316 314 313 314 314 315 315 314 316 316 315 316 317 318 320 323 325 328 329 329
304 304 303 303 299 298 300 306 306 307 307 307 304 304 307 308 312 310 310 314 312 312 313 314 316 316 315 314 315 315 315 315 316 315 316 317 317 321 320 321 322 322 325 328 328
304 304 303 303 301 298 305 307 306 308 303 303 308 307 306 307 313 308 310 311 312 313 313 313 314 316 315 315 314 314 314 316 316 316 317 316 318 316 319 321 321 323 324 325 327
304 304 304 303 301 302 307 307 305 307 298 303 308 309 310 309 310 312 310 312 313 313 312 313 314 314 316 317 315 316 316 317 317 317 317 318 317 316 318 321 320 321 322 324 324
303 304 304 303 303 303 301 303 307 308 301 303 308 311 312 312 311 313 312 311 312 312 312 312 315 315 315 316 316 317 318 318 317 316 319 318 318 317 317 319 319 318 321 323 323
304 304 304 303 303 303 301 304 309 309 306 305 310 309 310 311 311 310 312 311 312 313 314 312 312 313 316 316 316 316 317 318 318 319 320 319 321 319 317 316 318 319 321 322 324
304 304 304 304 303 303 304 306 309 306 306 306 307 307 307 310 309 310 310 311 310 312 312 314 314 313 313 315 315 316 316 318 322 320 319 322 324 321 319 318 319 320 322 323 324
304 305 305 304 303 303 302 306 306 307 308 308 309 308 307 311 311 310 309 309 309 310 313 313 313 313 313 315 316 316 317 317 321 322 323 321 321 319 318 316 316 318 322 324 325
304 304 305 304 304 302 302 302 305 306 306 306 308 309 309 310 312 311 312 311 311 310 312 314 314 314 315 314 315 316 318 321 321 325 325 322 323 322 320 318 315 316 320 324 325
304 304 305 305 304 302 302 302 304 304 305 307 307 307 309 309 312 312 312 311 312 311 310 312 314 314 314 316 316 317 319 322 321 320 321 323 320 317 320 318 316 315 319 323 325
304 304 304 305 302 301 303 301 303 305 305 305 306 307 308 308 309 312 312 312 310 315 313 312 314 316 316 316 316 316 317 322 320 326 321 318 321 317 317 316 315 314 319 322 324
304 301 304 304 304 303 303 303 302 304 305 305 307 306 306 307 308 311 312 312 313 317 313 313 314 316 316 315 316 317 316 317 320 321 322 321 322 318 317 317 317 315 318 321 324
300 302 303 304 304 304 304 304 302 302 303 305 305 305 306 306 307 308 311 313 316 316 317 316 314 316 317 316 317 318 318 318 319 320 321 322 321 321 320 317 316 317 319 320 321
300 301 303 304 304 304 304 304 304 303 303 303 303 304 304 306 307 308 310 313 313 315 316 315 316 315 315 315 318 319 318 318 318 318 320 320 321 320 319 318 317 318 319 318 320
299 301 303 303 304 304 305 304 305 304 304 303 305 306 304 305 305 307 309 312 316 317 317 315 316 316 316 316 318 319 318 317 317 318 318 319 319 317 319 319 317 319 318 317 318
300 301 303 305 305 304 304 305 305 304 304 303 304 305 305 305 305 306 306 312 316 317 317 317 315 315 317 318 319 318 317 317 318 318 318 318 318 318 317 317 317 319 319 320 319

GFSSW_850_thetae_078.txt.gz
Theta_e
305 304 303 301 300 300 300 300 300 300 300 300 301 301 302 302 304 305 307 311 312 316 315 313 311 312 314 313 315 314 309 309 312 310 311 313 314 317 321 325 326 328 328 327 325
307 308 306 305 302 302 300 300 300 300 300 300 300 300 301 302 303 306 308 311 311 316 315 314 310 312 312 312 314 310 308 310 309 310 313 313 313 314 321 322 323 325 326 327 327
304 304 305 305 305 303 302 301 300 300 300 300 300 300 301 301 303 309 315 314 314 316 318 315 315 313 315 315 313 309 310 310 313 314 314 312 312 316 320 321 321 322 325 328 327
301 303 302 304 302 303 301 300 301 301 300 300 300 300 300 301 304 315 316 316 317 317 317 315 314 316 313 313 314 313 312 313 314 314 313 311 315 319 320 319 322 323 324 328 327
300 300 300 301 301 301 300 300 300 300 300 300 300 299 300 303 303 306 311 316 315 315 315 315 313 313 314 312 312 311 311 314 314 314 315 314 316 319 321 320 322 324 325 327 327
302 301 300 299 300 300 299 299 299 300 299 300 301 300 301 307 305 306 307 307 313 312 312 314 313 312 315 313 312 314 312 313 314 315 315 316 317 322 319 321 323 325 326 326 326
297 299 301 299 299 298 298 299 299 299 300 301 302 301 302 302 304 305 304 305 312 311 310 313 313 313 314 314 315 315 314 311 311 314 313 315 317 320 319 321 324 325 326 325 326
297 297 297 299 300 297 297 298 298 299 300 300 302 302 305 303 302 304 304 304 304 312 313 313 314 314 313 314 314 314 312 313 312 313 314 316 314 314 316 321 322 324 328 326 328
300 299 299 298 298 297 297 297 298 299 300 301 302 301 302 302 304 309 314 314 314 306 313 315 314 316 315 313 312 311 312 311 311 313 315 312 314 313 318 321 321 324 327 329 329
303 303 303 301 298 297 298 297 299 302 304 300 306 305 301 302 305 313 314 314 313 308 312 313 314 312 311 311 315 313 313 312 313 313 313 313 312 312 316 320 321 325 328 329 327
304 303 304 304 302 299 299 298 303 303 307 305 307 305 304 307 309 314 315 313 313 313 312 313 312 313 314 313 312 312 313 314 312 312 315 314 313 313 315 321 322 324 328 328 328
303 303 304 304 304 301 299 302 306 304 304 304 303 306 303 305 308 308 310 313 312 312 312 313 314 314 313 313 314 313 314 314 312 313 313 313 314 313 317 318 322 323 327 328 328
302 303 304 304 304 303 298 305 305 306 306 306 305 305 304 305 306 305 307 313 312 312 312 313 314 314 314 313 314 314 314 314 313 313 313 314 314 314 317 318 320 321 323 326 328
302 302 304 304 303 301 299 306 305 307 305 303 305 306 305 305 308 306 307 309 311 312 312 312 312 314 314 315 314 314 313 314 314 315 315 314 316 314 314 317 320 320 321 322 326
302 302 304 304 303 302 305 306 306 307 299 302 307 308 309 305 308 312 308 309 307 311 312 312 313 313 315 315 313 315 313 313 314 314 315 316 315 314 316 318 317 318 321 322 323
301 302 304 304 304 304 303 303 303 306 300 302 308 311 311 310 310 312 311 310 310 311 311 311 312 312 313 314 313 316 315 315 316 315 317 317 317 316 315 317 317 317 320 321 322
301 303 303 304 304 303 303 301 308 307 304 305 307 307 306 311 311 310 312 310 309 311 312 312 311 312 315 313 314 315 315 317 318 318 320 316 317 318 316 315 315 316 318 320 321
301 303 304 304 304 303 302 305 308 306 306 305 307 307 306 309 310 309 311 310 309 310 307 310 311 312 312 315 316 315 315 317 322 320 319 319 321 319 317 317 318 319 320 319 320
301 303 304 304 304 303 302 304 304 306 305 307 307 307 306 310 311 310 309 309 308 309 311 312 311 311 312 313 315 315 317 315 319 320 321 319 318 316 316 316 314 315 317 318 320
302 303 304 304 305 304 303 300 303 305 305 306 307 308 309 307 310 311 311 311 309 308 310 312 313 312 313 312 313 314 315 319 318 324 325 320 321 318 318 317 315 314 316 320 322
302 304 304 303 305 303 304 301 301 301 302 305 306 307 308 308 308 311 311 311 309 313 312 310 312 314 313 313 313 315 316 319 319 318 320 320 319 316 317 317 317 313 316 320 322
302 303 304 304 305 301 304 302 301 303 304 303 305 305 306 306 307 310 312 312 311 313 315 311 310 313 314 314 313 313 315 318 319 321 318 317 319 316 316 315 315 313 317 320 320
303 303 304 304 305 304 303 303 302 302 303 305 305 305 305 305 306 308 310 311 313 314 315 316 314 312 314 313 314 316 315 317 319 319 320 320 320 316 317 318 317 316 317 318 322
300 301 303 305 304 305 304 304 304 301 302 304 305 304 305 306 305 307 307 307 309 312 314 314 317 313 313 313 312 316 316 316 319 317 318 319 320 318 318 317 316 318 319 318 320
300 300 303 303 305 304 304 304 304 303 302 302 303 304 304 305 304 305 306 306 310 313 315 315 316 313 314 312 313 317 317 317 317 316 317 318 320 320 317 317 317 320 319 318 318
299 300 302 301 304 304 304 304 305 304 303 302 302 303 303 304 304 304 306 307 308 314 315 314 316 314 314 313 314 314 315 315 316 316 317 316 316 316 317 318 317 318 320 318 319
299 301 303 303 303 305 304 304 305 305 304 303 303 303 304 304 303 303 303 304 305 306 312 315 313 314 316 315 316 317 315 315 316 316 317 318 316 316 316 315 315 319 318 320 321

GFSSW_850_thetae_081.txt.gz
Theta_e
308 308 308 306 303 301 301 301 301 301 300 300 301 301 301 302 303 304 305 307 308 312 315 315 315 313 314 314 314 314 317 317 315 314 316 313 315 315 317 322 324 326 325 326 327
304 304 302 301 302 302 300 301 301 301 301 300 300 300 301 302 303 305 309 309 307 310 315 315 312 313 313 312 313 314 316 316 314 313 315 314 313 314 318 322 323 325 326 326 325
300 300 300 301 301 302 301 299 300 300 301 301 301 301 300 301 303 306 315 315 312 315 314 312 311 312 312 313 312 311 316 314 314 313 313 314 312 314 319 320 319 321 320 324 323
300 299 299 298 299 299 299 299 299 300 300 300 300 301 300 300 304 313 315 315 314 317 316 313 314 314 315 315 313 314 312 313 314 314 313 313 314 317 319 318 317 319 322 322 322
300 299 299 299 298 298 299 299 299 299 299 300 300 300 301 302 302 304 306 314 316 316 317 315 314 314 316 314 312 313 314 313 313 312 312 313 315 316 318 317 318 320 323 324 324
299 298 297 297 297 298 298 298 298 299 299 299 300 300 302 304 304 305 306 306 314 312 315 314 313 313 313 314 314 314 312 313 314 314 314 315 316 319 318 318 319 322 323 325 325
298 297 297 297 297 296 297 297 298 298 298 299 300 301 303 301 303 304 304 305 305 311 310 310 313 312 313 315 314 314 315 315 315 315 315 313 317 320 318 318 322 324 325 326 326
299 298 299 300 298 297 296 297 297 297 298 298 299 302 303 302 302 303 303 303 302 302 308 310 311 312 312 313 314 315 314 316 314 313 314 316 317 318 316 319 325 326 327 326 326
301 302 303 302 302 301 298 297 297 298 299 301 302 302 302 302 302 309 311 310 313 310 303 313 313 314 314 314 315 314 315 314 314 313 315 316 318 317 316 319 323 324 325 325 326
303 304 304 303 304 303 301 298 298 301 304 302 304 304 302 302 305 309 314 314 313 311 307 310 314 316 315 315 316 316 315 314 315 314 315 315 316 316 315 320 321 323 324 326 326
301 303 303 303 303 304 303 298 302 303 303 303 303 303 304 304 308 312 313 313 312 308 312 313 315 317 317 316 314 315 315 315 315 314 315 315 315 316 316 320 321 323 325 326 326
301 302 302 303 303 304 303 301 303 302 304 304 303 303 303 305 305 309 313 311 312 313 312 314 316 315 314 315 316 315 315 316 315 314 315 316 317 317 317 319 321 322 325 326 327
301 301 302 303 303 303 302 303 304 303 306 305 305 305 305 303 305 305 309 313 312 312 313 314 315 314 315 315 316 317 317 317 316 314 315 315 317 318 318 318 319 322 323 326 327
300 301 302 302 303 302 300 301 305 303 305 305 305 305 305 305 306 304 304 306 312 313 313 313 313 314 315 315 315 316 315 316 316 316 316 316 319 318 319 318 319 320 323 325 326
300 301 302 303 303 303 303 305 305 306 302 302 307 307 306 305 306 311 306 305 306 312 313 314 313 313 314 315 314 315 315 316 316 316 316 315 317 318 316 320 321 320 321 322 322
299 300 302 302 304 304 304 303 302 308 301 303 309 311 308 308 308 311 310 308 308 307 310 311 311 313 313 314 315 315 315 315 316 316 318 316 319 320 320 321 321 319 319 320 322
299 300 302 303 303 304 303 302 307 307 304 305 306 307 307 310 311 310 311 309 310 309 309 310 311 312 313 314 314 315 317 318 321 321 317 319 319 321 319 318 319 320 320 318 320
299 299 301 303 303 303 303 304 307 306 306 306 307 307 307 308 310 310 311 311 310 310 308 310 310 313 313 315 315 316 317 317 317 321 319 318 321 321 320 319 319 318 318 318 318
299 299 300 302 304 304 302 303 304 305 306 306 306 307 307 308 310 311 310 311 310 309 310 310 309 310 312 315 316 316 317 316 319 321 324 321 321 320 320 319 318 318 316 317 318
299 300 301 301 303 304 303 303 303 304 305 306 306 308 309 308 310 312 311 311 311 312 310 313 313 313 313 312 314 316 317 318 318 319 321 321 322 321 320 320 319 320 319 318 318
299 301 300 300 303 303 304 304 302 301 301 305 306 307 307 308 308 311 312 311 311 314 313 311 313 315 313 313 314 314 317 319 318 320 320 321 322 320 322 321 321 320 317 316 319
299 301 301 302 303 300 305 303 302 302 302 302 305 305 306 307 307 309 310 310 313 313 315 314 314 313 313 314 313 314 315 317 322 322 321 321 321 317 320 320 318 318 317 316 318
299 300 302 303 303 303 304 304 302 302 303 304 304 305 305 305 305 306 309 309 311 312 312 311 316 315 313 312 312 314 315 315 316 319 322 325 322 318 317 319 319 318 320 319 317
300 301 301 304 302 304 304 305 305 303 302 303 305 305 305 306 306 306 307 306 306 306 312 311 313 317 317 315 314 314 316 316 318 320 319 321 320 320 320 320 320 318 319 320 319
300 299 302 303 303 303 304 304 304 304 302 302 302 304 305 305 305 306 306 305 306 307 314 313 310 312 315 314 316 317 314 316 319 319 320 319 320 320 320 320 320 318 318 319 319
299 300 300 302 303 304 304 305 304 304 302 302 303 303 304 305 305 305 305 305 306 306 306 310 313 313 315 315 316 316 316 314 317 317 317 317 318 318 318 318 318 318 317 318 320
299 300 302 302 304 304 304 304 304 304 304 303 303 303 303 304 304 304 304 303 304 305 305 306 312 315 315 315 315 317 316 315 315 316 317 319 318 319 318 318 318 317 317 317 319

GFSSW_850_thetae_084.txt.gz
Theta_e
304 302 302 300 299 299 300 300 300 301 301 301 301 301 301 302 303 304 306 307 306 308 310 313 314 314 314 316 316 317 319 319 318 318 318 318 318 318 320 321 324 326 326 330 324
301 300 299 299 299 299 299 300 299 300 300 300 301 301 301 302 303 305 308 311 308 307 314 315 316 315 314 315 316 317 319 319 318 318 318 317 318 318 318 320 322 324 327 328 325
303 301 300 299 299 299 299 299 299 299 300 300 300 301 301 301 304 308 311 315 315 307 314 316 316 315 315 315 315 316 318 319 317 317 317 318 318 318 319 320 320 321 322 329 329
300 299 299 299 298 298 298 298 298 298 299 299 300 300 300 301 309 310 314 315 312 313 314 314 313 314 315 317 315 316 316 316 316 316 316 318 317 318 319 320 319 322 322 327 329
298 298 297 297 297 297 297 298 298 298 298 298 299 299 300 307 305 305 304 305 315 315 314 315 316 315 316 316 316 317 316 316 316 316 317 317 317 318 318 318 319 322 325 327 329
298 297 297 297 297 297 297 297 297 298 298 297 298 298 306 307 304 304 305 305 310 316 317 314 316 316 316 317 317 317 317 317 317 317 316 317 317 317 318 318 320 323 325 326 328
302 300 298 298 298 297 297 297 297 297 297 298 297 298 305 304 303 303 304 305 309 312 313 314 314 314 315 317 316 317 318 318 318 318 318 317 317 318 318 321 322 324 326 327 329
301 301 301 302 302 302 300 298 298 297 298 298 299 304 306 301 302 303 301 302 303 304 305 311 312 313 314 316 316 317 318 320 320 318 317 316 317 318 318 322 322 325 327 328 328
302 301 303 304 304 303 302 301 300 298 298 300 303 306 305 303 302 306 302 304 304 303 302 307 312 312 314 316 317 317 319 320 320 318 318 318 317 319 320 320 322 324 327 328 328
301 300 302 303 303 303 303 302 300 300 304 305 306 306 305 304 308 312 314 314 314 313 308 307 313 315 316 316 317 317 320 320 320 319 317 318 318 318 320 320 322 324 326 327 327
301 300 302 302 302 303 303 304 305 306 306 307 307 306 305 308 304 310 314 315 312 312 309 309 315 315 315 317 317 318 319 320 320 318 318 318 318 318 318 321 322 324 325 327 327
300 301 302 301 302 302 303 303 304 304 305 305 305 305 305 307 306 307 313 314 314 314 312 313 314 315 315 316 318 319 318 319 319 318 318 319 319 318 318 322 322 323 325 326 328
300 301 301 301 301 303 303 303 305 305 306 307 307 306 307 305 305 306 311 313 314 315 313 314 315 314 316 317 317 318 319 319 319 318 319 319 320 319 318 321 322 323 324 325 327
299 300 300 302 302 304 305 303 304 304 309 308 307 308 307 306 307 305 305 311 314 314 314 314 313 315 315 317 316 317 317 317 318 318 319 318 320 319 320 322 322 323 325 325 327
298 299 301 302 303 304 305 304 304 305 307 305 308 307 307 307 306 311 306 305 309 314 314 315 315 314 316 316 316 316 316 316 317 319 320 320 320 319 318 320 321 322 323 325 326
297 299 300 301 302 303 304 304 304 310 306 305 310 311 309 307 308 311 309 307 307 306 308 313 313 314 315 315 316 317 317 318 318 319 321 320 319 320 321 322 322 322 322 324 325
296 298 299 301 304 303 304 304 309 308 306 307 310 309 308 311 312 312 310 310 311 308 306 306 310 312 314 315 315 316 317 321 322 323 322 319 319 320 322 322 322 322 322 323 324
296 297 300 300 301 303 303 306 308 306 307 307 308 308 308 310 313 312 313 313 311 311 310 308 307 308 309 313 314 317 318 321 322 323 323 319 320 321 322 322 321 322 322 323 324
296 297 299 300 301 303 303 308 304 306 307 308 308 308 309 310 312 314 312 313 313 312 312 311 310 311 311 312 312 316 319 319 320 319 323 322 322 322 322 322 322 322 321 322 322
297 298 300 300 301 302 304 305 305 306 307 307 307 309 309 309 309 312 314 313 313 314 315 313 313 312 312 313 314 314 316 318 319 320 321 321 322 322 322 322 322 323 324 323 322
297 299 300 300 301 303 305 305 304 303 304 307 308 308 309 309 309 309 311 312 312 314 315 315 314 315 315 314 314 315 317 317 318 319 321 321 322 322 322 322 323 323 322 322 322
298 301 300 301 302 301 305 304 304 304 303 304 306 307 308 308 308 308 308 311 311 312 314 316 318 315 314 315 315 315 316 317 320 318 321 321 322 322 322 323 323 323 322 320 323
299 299 300 301 304 303 304 306 305 304 305 305 304 305 306 307 307 307 308 310 309 310 311 312 317 318 315 315 315 315 315 316 317 319 321 326 322 321 321 322 321 323 322 322 320
298 301 300 301 301 304 304 304 307 304 304 304 306 306 307 307 307 307 307 307 309 308 307 309 311 315 319 318 318 318 317 316 317 321 319 320 319 321 321 321 321 322 322 321 321
298 299 300 303 302 302 305 304 305 306 303 304 304 306 306 307 308 308 308 308 307 307 310 311 311 310 311 313 314 315 317 318 318 318 321 319 319 319 319 321 321 321 320 320 320
298 300 300 301 301 303 303 304 305 304 305 305 305 305 306 307 307 307 307 308 307 308 308 309 313 313 314 313 314 316 316 317 318 318 318 318 319 320 320 320 320 320 320 320 320
298 299 301 301 303 304 305 306 306 305 305 304 305 305 305 306 305 306 306 305 306 307 308 309 310 311 313 314 315 316 317 319 318 318 318 319 319 319 319 319 320 319 320 320 320

GFSSW_850_thetae_087.txt.gz
Theta_e
302 301 300 299 299 299 299 299 299 299 300 300 301 301 302 303 303 304 310 312 313 308 308 316 319 318 317 317 318 319 321 322 323 323 322 320 320 319 320 320 321 323 324 329 332
305 302 301 299 299 299 299 299 299 299 300 300 300 301 301 302 303 308 311 310 309 307 308 317 319 318 318 318 319 320 322 322 323 322 320 319 320 320 320 320 321 322 323 327 331
302 300 298 298 298 298 298 298 298 299 299 299 300 301 301 301 309 314 312 313 315 315 310 317 318 318 319 318 319 320 321 322 322 320 319 319 320 319 320 321 320 321 321 323 330
301 299 298 297 297 297 297 297 297 298 298 298 299 299 300 301 313 314 311 306 311 312 316 316 318 319 320 320 319 320 319 320 320 319 319 319 318 319 319 320 320 320 320 323 324
301 299 297 297 297 297 297 297 297 297 297 298 298 298 299 310 310 309 307 307 306 314 315 316 317 318 320 320 319 320 320 319 318 319 318 318 319 319 319 318 319 319 319 322 324
303 301 299 297 297 298 297 297 297 297 297 297 298 298 305 309 308 306 307 309 311 316 317 317 318 318 318 319 320 320 319 319 319 319 319 320 320 319 319 318 319 319 320 322 326
303 303 301 299 299 300 300 299 299 298 298 297 297 298 305 306 307 307 309 308 312 312 315 318 317 317 318 320 318 318 320 320 320 320 321 320 321 321 320 319 318 320 322 326 326
302 302 300 299 301 302 302 300 300 299 299 298 298 304 307 306 306 307 308 307 309 313 313 315 316 316 317 318 319 319 320 321 322 323 322 321 322 322 320 319 319 322 324 326 327
301 302 300 299 301 301 300 300 299 300 299 299 302 308 308 307 307 307 307 307 307 307 308 309 310 315 317 319 320 320 321 322 322 323 321 320 321 323 321 321 321 322 324 327 329
301 301 301 299 301 300 299 299 303 305 308 308 309 309 310 306 308 311 315 307 307 310 308 307 308 313 314 316 320 320 321 320 321 323 323 321 322 322 321 321 322 322 324 327 329
300 300 301 301 302 299 300 307 307 310 309 310 310 310 308 308 308 308 316 316 316 315 312 309 309 313 315 315 316 318 319 321 323 323 322 322 322 322 322 320 321 322 323 325 328
300 300 301 302 301 299 303 307 307 305 307 306 306 306 307 308 307 308 311 314 316 317 316 313 311 314 316 316 316 317 319 320 321 322 322 321 322 322 322 322 320 321 323 325 327
299 299 300 301 300 302 307 306 306 306 308 307 308 309 309 308 308 308 309 314 317 316 315 316 316 315 315 315 316 317 319 321 321 322 322 321 322 322 323 322 321 319 322 323 326
298 298 300 300 301 306 307 306 306 307 310 309 309 309 308 308 309 308 308 311 314 314 314 316 315 316 316 316 316 318 319 319 319 321 321 322 323 323 324 322 322 321 322 323 324
298 298 299 300 304 306 306 306 306 308 306 309 309 309 310 309 309 310 309 307 311 313 314 315 315 316 316 317 315 318 318 318 319 320 320 321 322 323 324 323 322 323 323 324 324
297 298 298 300 303 304 305 307 307 311 306 307 311 311 311 311 309 312 310 307 307 309 313 315 316 316 316 316 317 317 317 318 319 320 322 322 324 325 324 323 324 324 322 322 324
297 296 297 301 304 305 305 307 309 308 307 308 312 312 311 313 313 313 311 310 311 308 310 311 311 315 315 316 316 316 318 321 323 324 324 323 323 324 324 324 324 323 323 322 323
296 296 299 300 303 304 305 308 309 307 308 309 309 311 310 311 314 314 315 314 313 312 313 309 309 309 313 315 316 317 318 321 323 326 326 325 324 323 322 323 322 322 323 323 324
297 298 299 301 303 303 305 308 307 307 308 309 309 310 310 311 313 314 315 315 315 314 314 313 313 312 309 311 313 316 318 318 320 322 324 325 324 324 323 323 324 323 322 323 323
299 299 299 301 303 303 304 305 306 307 308 308 310 310 311 311 312 313 315 315 315 316 316 315 315 314 312 312 311 311 313 316 318 320 323 322 322 323 323 324 324 323 324 323 322
299 299 300 302 303 302 306 306 305 306 306 308 309 309 310 310 310 310 311 314 314 315 317 317 316 316 314 314 314 313 314 315 317 319 320 322 322 323 324 323 323 324 324 324 324
299 300 300 302 303 302 303 305 304 307 305 306 307 308 309 308 309 309 310 311 311 312 315 317 319 317 315 316 315 316 316 315 318 319 319 321 321 322 323 323 324 323 324 323 325
298 299 301 302 304 304 303 304 306 306 306 306 305 306 306 307 308 309 310 310 310 310 311 311 317 318 317 315 315 316 317 317 318 318 320 325 322 322 321 324 323 322 323 323 323
299 302 300 302 302 304 304 304 304 306 307 305 306 306 306 307 308 309 309 309 310 309 307 308 310 313 317 318 318 317 316 317 317 321 319 320 320 321 322 322 322 322 323 323 322
297 300 301 303 303 303 304 304 305 305 306 306 306 307 307 307 308 309 310 310 310 309 309 310 311 311 311 311 312 315 316 317 317 318 319 319 319 319 319 320 322 321 322 322 321
297 298 299 301 301 304 303 304 304 305 307 307 307 306 306 307 307 309 310 310 310 310 310 311 313 312 313 312 313 313 314 315 316 317 318 318 319 319 320 320 321 319 320 321 321
297 298 300 301 303 303 304 305 304 305 305 305 306 306 306 307 306 307 307 308 308 309 310 311 311 312 313 311 315 316 314 315 317 319 319 319 318 319 319 321 321 320 320 320 321

GFSSW_850_thetae_090.txt.gz
Theta_e
306 302 300 300 299 299 299 299 299 299 300 300 301 301 301 302 304 305 309 311 313 314 311 313 317 319 320 320 319 319 320 320 321 323 323 323 321 321 321 320 321 321 323 328 334
305 302 300 299 298 298 298 298 298 299 299 299 301 301 301 302 303 305 310 311 311 310 310 311 317 319 320 318 319 320 321 321 322 323 323 322 321 320 321 321 321 321 322 325 329
303 301 298 298 298 298 297 297 297 298 298 298 299 300 301 301 305 315 314 311 312 314 315 311 316 320 320 319 319 319 321 321 322 322 322 321 320 320 320 320 321 321 321 322 329
302 299 298 298 297 297 297 297 297 297 297 298 298 299 300 300 313 316 310 309 307 307 314 313 316 319 321 321 320 320 320 321 321 321 321 321 320 320 320 320 320 320 321 321 321
303 303 301 299 298 297 298 298 297 298 298 298 298 298 299 309 309 309 310 309 308 308 316 317 317 319 321 321 321 321 321 321 320 320 320 319 320 319 320 320 320 320 319 320 320
303 303 303 301 299 299 299 299 298 298 299 299 298 298 304 307 306 309 308 309 310 315 318 317 317 318 319 320 321 321 321 321 321 320 320 320 320 320 320 320 320 319 319 319 319
302 302 303 301 298 298 299 299 299 299 299 299 299 298 305 303 306 308 309 310 310 312 314 317 318 319 320 321 320 320 321 321 321 320 321 321 321 321 321 321 321 320 319 320 321
302 302 301 301 299 298 298 298 298 299 299 300 299 299 307 303 307 308 308 308 309 311 314 314 316 318 319 319 320 320 321 321 321 321 322 322 323 323 322 322 322 321 319 321 323
301 301 301 301 299 297 297 297 297 303 304 302 300 306 308 309 309 309 308 308 309 309 311 314 313 316 318 319 320 320 321 322 322 322 322 323 323 323 322 322 320 320 320 323 325
301 300 300 300 301 299 297 297 299 307 308 310 308 311 311 310 308 309 313 314 310 309 309 309 310 311 313 316 320 320 321 321 322 322 322 323 323 322 322 322 322 322 322 323 326
300 301 300 300 301 300 298 299 309 310 311 312 312 310 311 310 309 310 310 315 309 308 310 309 310 310 311 314 316 318 319 320 321 322 322 324 324 323 323 323 323 323 323 323 324
299 299 300 299 300 299 297 308 308 307 307 307 308 309 310 309 309 310 309 316 317 318 317 314 311 311 311 313 316 316 317 318 319 321 321 322 323 322 322 323 323 322 321 323 323
298 299 299 299 300 297 306 308 306 307 308 307 307 307 307 308 308 308 309 310 314 316 317 317 316 313 313 311 313 317 318 318 319 321 321 322 322 322 322 322 323 323 322 321 324
298 298 299 298 299 305 308 307 307 308 309 308 310 310 310 310 311 310 310 310 311 315 317 317 316 315 316 316 313 317 318 318 319 320 323 321 323 324 323 324 325 324 323 322 322
298 298 297 298 302 306 307 306 307 308 308 312 310 310 311 309 311 311 310 309 311 315 315 315 315 314 316 315 317 316 317 318 320 321 321 320 322 321 322 323 324 324 323 321 323
298 298 297 298 300 301 304 305 307 309 307 307 311 311 312 311 311 313 312 310 309 309 311 314 314 315 315 316 316 317 317 318 319 320 323 321 322 322 322 324 325 324 323 324 324
298 297 297 299 302 305 305 306 309 308 307 307 310 311 312 313 312 311 313 311 310 308 309 310 312 314 316 316 316 316 318 320 321 323 324 321 322 323 323 324 325 325 324 323 324
297 297 298 298 300 303 304 307 310 308 308 308 310 312 313 311 314 313 314 312 311 310 310 312 311 312 314 315 316 316 318 319 320 327 328 324 326 323 324 324 323 323 323 323 323
297 298 299 299 301 302 304 306 306 307 308 308 310 309 311 311 312 315 315 315 314 313 314 315 313 313 311 312 315 317 317 317 319 320 323 323 325 325 324 323 324 324 323 323 324
298 299 300 300 301 302 304 304 305 306 307 309 310 310 309 310 312 314 314 315 316 315 316 315 316 315 312 310 312 314 317 318 319 319 318 318 321 324 325 325 324 324 324 323 323
297 299 299 300 302 302 304 303 305 304 306 309 309 311 312 313 312 313 316 315 315 315 315 318 316 315 314 310 311 311 311 312 313 316 318 321 323 324 325 324 325 325 325 324 324
297 301 300 301 303 303 305 303 303 304 305 306 308 309 311 310 311 311 311 314 312 313 314 315 318 318 315 315 314 314 312 311 314 316 320 320 320 320 321 323 324 324 324 324 324
298 299 300 303 304 303 303 303 303 304 305 306 308 306 307 307 308 309 310 311 310 311 310 310 315 317 316 315 315 316 316 315 315 316 318 321 322 320 323 322 324 323 324 324 324
298 301 299 302 302 304 304 303 303 303 305 306 308 308 306 306 307 308 309 310 310 310 307 308 310 312 315 317 315 316 318 316 317 319 319 319 318 319 320 321 321 322 323 323 323
297 301 301 303 304 303 303 303 305 304 304 305 308 308 307 306 306 307 308 309 310 310 310 310 310 310 310 310 310 311 312 316 318 317 318 318 318 319 319 320 320 321 321 322 322
297 298 299 300 302 303 303 303 303 304 305 307 306 307 307 308 308 308 310 311 311 311 311 312 314 312 312 312 312 312 312 312 315 316 316 316 317 318 318 318 319 321 321 320 321
297 297 298 300 302 302 304 304 303 303 303 304 306 307 307 308 307 308 308 309 310 310 310 311 312 313 313 312 312 314 314 313 312 314 315 318 320 319 319 319 319 320 321 321 321

GFSSW_850_thetae_093.txt.gz
Theta_e
305 305 302 301 299 298 298 298 298 298 299 299 301 301 301 302 303 303 305 310 309 313 313 313 313 315 320 320 320 319 314 315 316 316 318 320 320 321 321 320 320 320 321 325 330
303 303 301 299 298 298 298 298 298 298 298 298 299 299 299 300 302 304 308 308 310 311 310 311 310 317 319 319 319 316 313 316 317 317 319 319 318 319 319 319 320 320 320 328 331
304 303 301 299 298 298 297 297 298 298 298 298 298 298 299 299 301 310 312 311 311 311 311 311 310 312 319 320 319 317 316 316 318 319 320 318 318 320 317 316 319 320 321 330 330
303 302 301 300 298 298 297 297 297 298 298 298 298 298 299 299 309 316 310 309 310 309 308 313 312 311 314 317 319 317 317 317 318 319 319 317 320 317 318 318 319 319 320 324 328
303 302 302 302 301 298 297 297 297 298 298 299 299 299 299 305 306 306 307 310 309 309 309 314 314 313 315 318 318 318 318 319 319 319 319 320 318 317 318 319 319 319 319 319 323
302 303 302 302 301 300 297 297 297 298 299 299 300 300 300 304 305 308 309 309 308 310 315 316 316 318 317 317 317 319 320 320 320 319 319 318 317 319 319 320 320 320 320 319 319
302 302 302 302 301 300 299 297 297 297 298 299 301 301 303 302 304 308 308 308 309 309 310 313 318 318 317 317 318 319 318 318 318 319 317 320 317 317 320 320 321 321 320 320 319
302 302 301 301 301 300 297 296 297 297 297 303 303 301 304 303 305 307 305 308 309 309 309 313 313 314 316 318 319 318 317 318 318 318 318 318 319 318 320 320 320 321 320 320 319
302 302 301 300 300 300 297 296 297 297 298 305 306 301 307 309 310 308 309 308 307 309 309 310 313 313 315 316 316 317 318 318 318 318 318 318 319 319 321 321 320 320 321 321 319
302 302 300 299 300 299 297 296 304 304 307 309 308 308 309 308 309 309 310 310 309 308 309 309 310 309 311 313 318 316 317 316 317 317 319 319 319 319 320 320 320 320 320 319 320
301 300 299 299 299 298 297 301 308 309 309 312 311 309 309 311 311 310 310 312 312 311 307 308 306 306 307 309 312 314 315 316 316 316 317 318 318 318 319 319 318 320 321 321 321
301 300 298 299 298 298 298 304 308 307 307 306 307 309 311 310 311 310 309 310 316 308 307 308 307 308 308 308 309 311 313 313 314 315 317 316 318 318 319 318 320 320 320 321 322
301 300 298 298 298 298 304 307 308 306 306 305 304 306 306 306 309 308 307 308 311 316 314 311 314 311 309 309 308 308 310 313 315 316 317 318 319 319 319 319 321 321 321 322 322
301 299 298 298 297 304 308 307 307 306 306 306 308 307 307 307 309 309 307 308 309 309 314 315 315 316 313 310 310 309 309 311 315 318 319 319 323 320 320 319 321 320 320 321 321
300 299 298 298 297 302 305 306 306 307 305 308 310 310 309 309 311 310 310 308 309 309 312 313 314 314 314 313 313 313 311 312 318 318 319 320 322 320 318 320 320 319 320 321 322
299 298 298 297 298 299 302 304 306 307 307 307 310 310 310 310 310 310 310 310 310 309 309 310 311 311 312 313 314 315 316 317 318 319 322 320 321 320 319 320 321 320 321 322 322
299 298 297 297 296 301 304 304 306 308 307 307 310 310 311 311 310 311 313 311 307 307 307 308 308 309 311 311 314 315 315 317 320 320 320 318 321 320 319 320 320 320 321 321 322
298 298 298 297 295 296 301 306 308 307 306 309 308 310 310 311 311 311 312 310 309 307 307 307 308 308 309 310 314 315 316 318 321 323 326 320 326 324 322 321 321 321 321 322 322
298 298 297 297 296 300 301 305 306 305 306 306 308 310 309 312 310 312 310 312 310 308 309 312 312 314 309 310 314 315 315 316 318 318 322 320 319 319 322 323 322 320 322 323 323
298 298 298 297 300 301 302 303 303 304 304 306 308 310 311 312 312 310 313 314 315 315 312 314 316 316 314 311 312 313 315 317 317 318 317 316 316 321 320 323 322 321 319 322 324
297 298 297 298 301 301 301 300 301 302 304 305 308 309 310 311 311 312 312 315 315 315 316 316 317 316 315 309 309 311 313 315 314 316 317 318 319 321 322 321 322 322 322 323 323
297 297 300 300 301 302 300 302 301 302 303 304 306 307 311 309 309 312 312 314 312 311 313 310 316 317 317 316 314 310 310 310 311 312 314 316 316 320 318 321 321 322 322 323 323
297 298 297 300 297 300 302 302 303 303 303 304 306 307 307 307 308 308 310 312 311 311 309 309 312 316 314 315 316 317 313 312 311 311 312 315 316 316 316 321 321 321 322 322 325
296 294 299 300 300 302 303 303 303 302 302 303 305 305 306 307 306 307 307 310 310 308 308 308 310 311 313 313 312 312 312 313 316 316 313 313 313 314 316 320 322 321 320 319 322
296 297 299 298 300 302 302 303 303 304 304 303 305 305 306 308 308 306 308 310 310 310 310 310 309 310 310 310 310 310 310 310 311 318 319 317 317 316 316 316 317 318 319 319 322
296 297 298 299 300 302 302 301 303 303 304 304 305 305 306 306 308 308 308 310 311 310 311 312 313 313 313 312 312 312 312 311 311 311 313 314 314 317 317 318 320 321 320 318 321
295 296 297 298 300 301 301 303 303 303 303 304 305 305 306 307 307 307 308 308 309 310 309 310 312 311 313 312 312 312 312 311 312 312 312 313 318 319 320 321 320 320 321 320 321

GFSSW_850_thetae_096.txt.gz
Theta_e
303 302 301 300 299 298 298 298 298 299 299 299 299 300 300 301 302 303 304 307 307 310 310 314 312 315 313 317 318 318 313 312 313 314 315 317 317 320 319 320 320 322 322 323 328
303 303 303 301 298 298 298 298 298 298 298 298 299 299 299 299 301 304 307 309 307 306 311 312 312 311 316 318 320 314 312 315 314 314 316 316 316 318 318 318 319 320 320 321 327
304 303 303 302 301 299 298 298 298 298 298 298 298 299 299 299 300 307 310 310 310 310 310 311 311 310 314 318 318 314 317 316 316 317 317 316 316 318 316 315 318 319 320 323 326
303 303 302 302 302 302 299 298 297 297 298 298 299 299 299 299 303 316 310 308 310 309 308 308 311 310 309 314 318 316 316 315 316 317 316 315 317 316 317 318 319 318 318 322 329
303 302 302 302 302 302 300 298 297 297 298 298 299 300 300 301 302 305 311 306 309 309 309 309 313 311 311 312 314 315 317 318 318 317 317 317 316 316 317 320 320 319 319 321 325
303 302 302 302 301 301 301 298 297 297 297 298 298 300 304 303 304 305 303 303 309 311 311 314 314 314 314 315 314 317 317 317 318 318 318 316 316 316 318 320 319 319 319 319 321
304 303 302 302 301 300 300 299 297 297 297 297 298 304 306 302 304 303 304 308 308 311 309 309 312 315 317 315 317 317 315 316 316 317 317 319 316 315 319 319 319 320 320 320 320
302 303 303 302 301 300 300 298 297 297 297 297 298 306 306 302 301 303 304 307 307 309 309 309 310 309 314 315 317 317 316 317 317 316 317 317 318 316 319 319 319 319 320 320 320
302 301 302 302 301 300 299 298 297 297 297 297 300 306 305 305 308 309 308 306 306 308 308 308 309 311 314 314 315 315 318 317 317 317 316 315 317 316 320 318 318 318 319 319 321
301 300 301 301 300 299 298 296 301 308 304 303 306 307 306 308 309 309 310 310 310 308 308 308 308 308 309 313 316 316 316 315 316 316 316 316 316 315 317 317 317 318 318 319 320
300 300 301 301 300 298 298 300 308 308 310 309 308 308 306 308 311 310 310 309 309 308 306 307 305 305 308 311 314 314 314 314 314 314 314 313 313 313 315 317 317 318 317 318 320
300 299 300 300 299 298 298 299 307 307 306 305 305 308 307 308 310 310 311 309 312 309 307 306 306 306 307 307 308 309 310 311 312 311 312 312 314 315 315 316 317 318 318 318 319
299 300 301 300 299 297 303 306 306 307 305 305 304 305 305 304 307 306 308 307 307 311 307 307 309 308 307 307 307 307 307 308 309 311 313 316 316 315 316 317 318 319 319 318 321
299 300 301 298 298 299 304 303 306 307 302 303 306 305 305 305 307 305 304 306 307 307 313 313 311 308 311 308 307 307 308 307 307 308 310 316 317 315 316 317 317 318 319 319 319
298 299 299 298 298 298 301 304 306 306 298 305 308 307 307 307 309 309 309 306 306 307 307 310 314 314 315 315 309 309 309 309 308 313 317 319 318 315 318 318 318 318 319 319 320
297 298 299 298 297 296 301 304 305 303 301 306 310 309 307 307 309 310 309 308 307 307 307 307 309 308 311 311 312 312 312 314 315 316 318 319 318 316 317 317 318 318 319 320 319
297 298 299 298 297 297 300 303 303 306 305 308 307 307 309 309 309 309 311 309 306 307 307 307 308 308 308 308 309 312 313 314 316 318 318 317 319 317 317 317 318 318 319 320 321
298 299 298 298 297 297 300 302 305 306 306 306 307 308 310 310 310 309 311 310 309 306 305 306 307 307 307 308 309 311 312 314 318 319 318 320 321 322 320 319 319 320 321 322 321
298 298 298 297 297 298 299 304 305 305 304 305 306 310 311 311 312 310 309 311 310 309 307 307 307 308 308 309 309 311 314 313 316 317 317 318 318 316 318 320 321 322 320 319 321
297 297 297 297 299 299 301 302 303 302 302 304 305 309 310 309 310 312 311 312 311 309 308 312 313 314 314 307 308 312 312 315 314 317 318 316 314 316 319 321 323 322 322 321 324
297 297 298 298 299 299 298 300 300 300 301 304 306 306 306 308 309 311 312 313 313 314 312 314 315 314 314 309 308 310 310 314 315 316 317 316 316 321 321 321 320 320 320 321 320
296 291 297 300 299 300 295 301 300 301 301 302 305 305 307 310 309 309 310 311 309 310 312 310 315 317 315 315 314 313 311 313 316 316 315 315 317 319 319 321 319 318 320 322 321
296 297 297 298 299 298 299 302 301 301 302 302 304 305 306 306 309 308 309 307 308 310 311 309 311 315 314 316 314 315 314 312 315 310 311 312 314 315 317 318 319 320 320 320 320
296 294 297 299 299 301 300 300 301 302 302 302 302 303 305 305 306 307 307 307 307 308 310 308 309 310 312 311 311 314 313 311 312 316 314 313 313 315 318 317 319 318 319 319 318
295 293 296 300 297 301 300 302 302 302 303 303 303 304 304 306 306 307 307 308 308 309 311 310 308 311 312 310 310 310 311 311 311 311 315 318 318 318 318 319 320 320 320 319 319
295 293 297 298 298 300 300 302 301 301 302 303 303 304 304 305 306 306 307 308 309 310 309 311 311 311 312 311 311 312 312 311 311 311 311 314 315 318 318 318 319 321 321 319 321
295 296 297 297 298 298 300 301 302 301 302 303 303 304 305 305 306 306 306 307 308 309 308 309 310 309 312 311 311 311 311 311 311 317 317 315 319 316 317 318 318 320 321 322 321

GFSSW_850_thetae_099.txt.gz
Theta_e
302 302 301 301 300 299 298 298 298 298 298 298 298 299 300 300 302 302 304 307 306 306 307 307 312 315 314 315 315 317 312 313 313 313 314 316 315 317 318 317 318 321 323 324 325
304 304 303 301 301 300 298 298 298 298 298 298 298 299 299 299 301 304 306 307 306 305 309 308 314 315 314 315 318 314 312 313 313 312 315 314 314 316 316 316 317 318 319 320 325
303 302 302 302 301 301 300 300 298 298 298 298 298 298 299 299 300 306 309 310 312 306 307 312 313 312 315 316 316 314 316 314 314 316 316 313 314 316 315 313 317 318 319 320 327
304 303 303 302 302 302 302 301 299 298 298 297 298 298 298 299 302 314 310 308 309 309 310 311 312 310 307 312 317 315 313 317 317 317 316 314 316 314 314 316 318 318 318 318 323
304 304 304 303 302 302 301 300 300 299 297 297 297 298 299 302 301 304 311 310 308 309 308 309 310 310 308 308 311 314 315 317 317 317 317 317 315 314 315 319 319 318 317 317 319
303 303 304 304 303 302 302 301 299 299 297 297 297 298 303 305 302 303 303 304 305 308 309 310 310 311 311 310 311 314 314 315 316 317 317 316 316 316 317 319 319 319 317 317 319
303 302 302 302 302 302 302 301 300 298 298 296 297 298 302 301 302 302 303 306 304 307 311 314 313 315 315 314 315 315 314 313 313 315 315 317 315 314 318 319 319 319 319 319 318
300 301 301 301 301 302 302 300 300 298 297 296 297 300 304 300 302 303 302 303 303 305 310 310 309 308 308 312 315 316 315 316 315 315 316 316 318 316 319 319 318 318 318 319 319
300 300 301 301 300 301 301 300 299 297 296 296 298 302 304 302 305 308 308 304 304 306 308 308 308 308 312 312 313 314 314 316 316 316 316 313 315 315 317 317 316 317 318 318 319
302 301 300 300 300 300 300 299 298 308 307 303 304 305 302 305 310 310 309 308 307 306 306 307 308 306 308 310 314 313 315 314 315 315 315 314 315 313 315 315 315 316 317 317 318
300 301 300 300 300 300 299 297 306 306 308 307 307 306 306 307 307 310 310 309 308 307 304 306 304 306 306 310 312 313 314 314 313 313 311 312 312 311 311 312 314 316 316 318 318
299 299 299 300 300 300 298 297 302 302 304 305 306 307 307 308 308 307 310 310 308 307 305 305 305 305 307 309 309 309 311 311 310 311 311 311 311 310 311 313 315 316 317 318 318
298 298 298 300 300 299 298 301 302 304 306 305 304 305 305 305 307 306 307 308 307 311 306 307 307 306 306 306 307 306 307 307 309 308 307 310 310 312 313 313 315 316 316 317 317
297 297 298 299 298 298 298 301 303 305 304 303 304 304 304 304 305 304 304 306 305 306 307 309 307 307 306 306 306 305 306 307 306 306 305 311 309 309 312 313 314 316 316 316 316
297 297 297 298 298 297 297 302 304 306 299 302 305 305 305 306 307 307 304 306 304 306 308 310 312 309 307 308 306 306 308 307 307 305 307 310 316 311 315 315 314 314 316 317 318
296 297 297 298 298 297 297 300 304 302 303 305 307 307 306 306 307 306 305 305 304 305 305 306 307 307 311 311 312 311 309 310 309 308 313 311 316 313 312 315 315 316 317 320 318
295 297 298 298 298 297 297 300 304 303 303 306 305 306 307 308 308 308 307 307 305 304 304 305 305 306 307 307 307 310 311 313 315 318 316 316 317 315 314 316 315 318 321 321 320
295 297 298 298 298 297 298 302 301 304 304 304 304 307 310 309 310 309 310 307 307 305 304 306 307 305 305 307 307 307 309 312 316 316 315 315 318 315 318 317 319 319 320 320 320
295 296 297 297 297 297 299 299 304 304 302 303 305 309 309 307 308 311 309 309 308 305 306 306 306 306 306 306 307 308 311 310 313 314 316 316 316 313 317 319 319 319 318 318 318
296 296 296 298 297 298 298 302 302 300 300 303 307 307 307 306 309 308 311 312 311 311 308 307 309 311 313 306 306 308 310 312 312 316 317 314 315 314 320 321 319 318 317 318 319
296 296 297 298 298 298 293 297 300 300 300 303 303 305 305 308 309 309 312 311 308 310 310 309 312 310 313 309 307 308 310 312 312 313 316 315 313 318 320 318 320 319 317 318 319
296 291 296 298 296 296 291 299 300 301 300 301 303 304 307 306 306 308 312 311 308 309 311 309 312 311 310 314 313 308 310 312 313 314 313 313 315 317 316 319 320 319 318 318 319
295 295 296 297 300 297 298 300 300 300 301 302 303 304 306 305 304 308 307 307 306 308 310 309 311 313 313 315 312 315 314 310 313 310 312 314 315 314 315 317 319 318 317 317 319
295 294 296 298 298 299 300 299 299 301 302 301 302 301 302 305 305 306 307 307 306 308 308 309 310 311 312 310 312 312 313 312 311 314 313 313 315 316 318 318 319 319 317 317 319
295 292 295 296 299 299 300 299 300 300 302 303 302 302 302 303 305 305 307 308 308 308 310 311 310 311 312 311 309 310 311 312 310 311 312 314 315 318 318 318 318 319 320 319 317
295 292 296 296 297 298 299 300 301 302 301 302 302 303 303 305 305 304 306 306 307 309 308 311 311 311 311 309 309 311 311 310 310 311 312 311 313 316 317 317 319 320 321 319 317
294 295 296 295 296 296 299 300 301 299 299 301 302 303 303 303 303 304 305 306 307 307 308 308 310 308 310 309 308 311 310 310 315 315 317 317 316 315 316 318 318 318 317 317 315

GFSSW_850_thetae_102.txt.gz
Theta_e
304 303 302 302 301 301 300 300 300 299 299 298 298 298 298 299 300 301 302 305 305 305 305 307 312 315 313 313 315 315 311 311 313 311 313 314 315 316 317 316 317 318 319 324 325
304 304 303 303 302 302 301 301 300 300 299 298 297 297 298 298 300 302 305 307 307 305 305 306 308 314 314 314 315 312 311 310 312 311 313 314 314 314 316 314 316 316 318 319 320
304 304 304 304 303 303 302 301 300 300 299 299 298 297 298 298 299 304 309 309 311 307 303 306 308 314 314 315 316 315 314 313 313 314 314 313 314 316 315 313 316 316 318 318 321
303 303 303 303 304 303 303 302 302 301 300 299 298 297 297 298 300 309 310 308 309 306 307 309 313 312 307 311 315 314 312 315 315 316 316 314 315 314 314 316 318 319 319 317 318
302 303 303 303 302 302 302 303 302 302 301 299 298 298 300 302 301 303 303 311 309 309 306 311 311 311 307 306 308 312 314 315 315 316 316 316 314 314 313 318 319 319 318 318 317
300 301 301 302 302 302 301 301 302 302 301 299 298 299 303 303 301 301 302 303 302 306 308 310 309 310 309 308 308 310 311 312 315 316 315 315 315 315 316 318 318 318 319 319 317
299 299 299 301 301 300 301 300 300 301 301 299 298 300 303 301 301 300 302 303 304 304 307 309 308 312 312 311 312 312 311 311 311 314 313 315 313 313 316 317 317 318 318 318 317
299 299 301 301 300 300 300 300 300 300 299 298 297 300 302 299 299 300 300 301 302 304 303 308 312 311 309 310 312 315 314 314 314 312 314 316 317 316 318 317 316 317 318 318 318
300 299 299 301 301 300 300 300 299 299 298 298 299 302 302 299 300 304 308 306 303 302 303 306 311 307 309 307 311 311 312 314 315 313 315 314 316 315 316 316 315 316 316 316 316
298 298 299 299 300 299 300 300 299 303 306 305 302 301 300 299 307 310 309 309 306 304 304 306 307 305 306 308 311 312 314 313 314 314 314 313 314 312 315 312 312 313 314 315 316
298 298 298 298 298 299 300 300 299 305 304 306 305 303 302 307 307 310 310 308 307 305 304 305 305 304 305 309 311 311 312 313 312 312 312 311 311 309 310 310 309 311 313 315 316
296 296 296 297 298 299 299 300 298 300 300 303 303 304 305 306 307 307 306 309 308 307 304 304 305 304 305 307 310 310 311 311 310 310 311 311 312 309 307 307 310 312 314 316 316
296 297 297 297 297 298 299 299 298 299 303 304 304 305 304 304 306 305 304 309 308 308 306 306 307 306 305 306 308 307 309 308 310 307 305 306 307 306 307 309 313 315 315 315 316
296 296 296 297 297 298 297 298 298 300 302 303 303 304 304 304 305 304 305 307 306 310 309 307 308 306 305 306 306 307 305 307 306 305 304 307 306 308 308 309 311 312 315 315 317
295 295 295 297 297 297 297 297 297 300 303 301 304 303 304 304 305 306 305 306 305 306 308 310 311 308 308 305 304 305 305 305 305 304 304 310 306 307 310 311 311 311 313 318 321
295 295 295 296 298 298 297 297 298 304 301 305 305 305 305 305 306 304 304 304 304 304 305 306 306 308 308 307 305 308 308 307 307 305 308 307 307 309 310 312 314 314 318 320 318
294 294 295 297 298 298 298 297 302 302 301 304 304 304 306 308 307 307 305 305 303 302 303 303 304 306 307 307 307 308 308 312 314 314 313 309 310 311 312 313 317 318 318 317 317
294 295 295 296 297 297 297 300 302 303 302 302 304 308 307 307 308 308 306 307 306 304 304 305 306 304 305 306 306 306 307 311 315 315 313 314 315 314 315 317 317 317 316 316 317
295 296 296 297 297 297 297 300 302 304 301 301 304 306 306 306 308 308 310 312 310 309 307 305 305 305 305 305 306 307 308 308 310 311 314 312 313 312 317 318 317 317 316 316 316
295 296 296 297 297 297 292 299 301 300 300 301 303 304 305 307 307 308 312 309 309 309 309 307 307 309 311 305 305 306 307 311 310 315 314 312 313 313 316 317 318 317 316 316 316
295 296 297 297 298 296 287 296 298 299 300 301 302 303 305 305 307 308 311 310 308 309 309 309 309 308 308 309 307 307 307 310 310 311 313 313 311 311 316 316 318 318 317 316 316
296 290 296 298 296 294 291 297 298 299 299 300 302 304 306 305 305 308 308 308 307 307 311 309 310 312 309 310 313 307 309 308 310 312 312 312 312 318 314 316 317 318 316 315 315
295 294 296 297 293 297 297 299 300 300 300 301 301 303 304 304 302 305 307 307 306 307 309 309 310 314 312 312 311 313 313 310 311 309 312 313 312 312 313 314 317 318 317 316 315
295 293 294 298 296 298 299 299 299 300 301 301 301 301 301 304 304 303 305 307 307 307 309 309 309 309 312 310 308 312 312 312 311 312 311 310 313 314 316 316 316 318 318 319 315
294 292 293 292 298 298 299 299 300 300 300 301 301 302 302 303 302 304 306 306 306 307 308 310 308 309 310 311 310 311 311 311 311 310 311 311 312 316 316 316 317 318 318 318 317
294 292 295 295 296 297 298 299 301 299 301 302 301 301 302 302 303 304 304 305 306 307 308 308 310 310 310 311 309 310 311 311 311 312 311 310 312 315 315 317 317 317 317 316 314
294 294 295 294 294 295 296 299 300 298 298 301 299 300 301 303 303 303 303 304 305 306 307 308 309 308 309 310 308 310 309 311 314 314 315 314 315 314 315 317 314 313 313 311 310

GFSSW_850_thetae_105.txt.gz
Theta_e
306 305 304 303 303 303 302 302 301 300 300 299 299 299 299 299 300 300 302 304 304 305 304 304 312 311 311 313 313 313 315 315 315 314 315 314 316 315 316 316 317 317 317 318 321
303 303 303 303 303 303 303 303 302 302 301 300 299 299 298 299 299 301 303 305 307 304 304 304 310 313 312 313 313 315 314 314 314 314 315 315 315 315 316 316 317 316 317 318 318
300 302 302 302 302 302 302 302 302 302 302 301 300 299 298 298 298 303 308 309 309 309 302 304 306 313 313 313 314 315 315 313 313 313 313 314 314 314 316 317 317 317 317 318 318
299 300 301 301 301 301 301 301 301 301 301 302 301 299 298 298 301 305 310 309 308 306 302 305 310 314 314 315 314 315 314 314 314 314 315 316 315 316 316 317 317 317 318 318 318
295 297 298 299 299 301 300 300 300 299 299 300 301 300 299 301 302 302 302 303 302 306 303 309 311 311 312 310 312 315 315 314 315 315 314 315 316 316 315 316 317 317 318 318 318
299 298 299 300 300 300 300 300 300 300 299 299 300 299 301 301 301 301 301 301 302 302 305 307 310 311 310 309 310 310 311 313 314 315 315 316 316 315 315 316 317 318 318 318 318
299 299 299 299 299 300 300 300 300 299 298 299 299 300 301 300 300 301 300 300 302 303 307 308 310 309 309 310 310 311 312 312 312 312 314 314 316 316 316 316 316 317 318 318 318
297 297 297 297 298 298 298 298 299 299 299 299 298 300 301 299 299 299 300 300 299 300 303 306 311 311 311 312 311 315 315 315 315 314 314 315 318 317 317 315 315 315 316 317 317
295 296 296 296 297 297 297 297 298 298 299 299 304 301 301 298 299 305 305 303 302 300 301 303 304 307 307 310 313 313 316 316 316 314 316 316 317 316 314 315 315 314 315 315 315
295 295 295 295 296 296 296 297 297 299 303 303 302 301 299 298 302 307 309 309 307 304 302 303 305 309 309 309 310 311 314 314 316 316 315 317 317 316 315 313 313 314 314 314 313
295 295 295 296 296 296 297 297 298 299 300 301 301 301 302 306 307 309 308 308 306 304 303 304 306 308 309 309 309 311 312 313 314 314 315 317 317 315 314 314 314 314 313 312 312
295 295 295 296 296 296 297 297 298 298 297 298 298 300 302 303 304 305 307 308 307 306 305 305 307 308 307 308 309 311 311 313 312 312 313 314 314 312 311 311 311 311 310 310 314
295 295 295 295 295 297 297 297 297 297 298 298 299 302 302 302 303 303 305 307 308 307 305 307 307 307 306 307 309 310 311 312 312 310 308 308 309 309 309 308 309 310 311 313 314
295 295 295 294 296 297 298 297 297 297 299 300 304 304 304 304 304 303 303 304 308 309 306 306 307 306 306 306 307 307 308 310 311 310 310 308 309 310 311 311 312 313 313 314 319
294 294 294 294 297 297 297 297 297 297 301 301 304 303 304 304 304 305 304 304 306 309 310 311 311 309 307 306 307 307 307 309 309 308 307 308 310 311 310 313 313 314 316 320 319
293 294 294 295 296 297 297 297 297 298 302 304 305 305 305 304 305 304 305 304 305 307 306 309 306 309 310 307 307 307 307 308 307 308 312 310 312 312 313 313 316 318 319 319 318
294 294 295 295 296 296 297 297 298 301 302 303 304 306 307 307 308 306 304 304 304 306 306 304 306 306 307 308 306 309 312 313 316 313 314 310 310 313 314 316 320 320 318 317 316
295 295 296 297 297 297 297 298 300 304 300 301 303 307 307 307 308 309 305 307 310 307 303 303 303 305 306 309 309 309 311 313 313 317 314 312 313 314 315 318 317 317 316 316 317
294 295 296 297 298 297 296 298 300 302 301 300 301 304 306 306 308 311 310 311 310 310 308 307 306 304 305 306 309 308 309 311 312 313 314 314 315 314 319 319 318 317 317 317 317
294 295 296 297 297 296 294 297 300 301 300 300 301 302 305 304 308 311 311 309 310 308 309 309 310 309 308 306 306 309 310 311 312 313 313 313 314 314 317 317 318 317 318 316 316
295 295 296 297 297 295 294 296 298 298 298 300 301 302 305 304 305 309 308 307 307 308 309 309 310 310 309 309 307 307 307 310 311 313 311 312 312 312 317 317 318 318 318 316 316
295 293 295 296 296 294 296 297 298 297 299 300 301 303 303 304 304 306 307 307 306 307 310 309 311 313 310 309 312 309 309 309 310 312 313 312 312 317 316 316 318 319 318 317 317
295 294 295 297 294 297 298 298 299 300 300 301 301 301 302 303 303 305 306 307 307 308 309 309 311 314 313 314 311 313 312 310 311 311 312 313 313 315 317 318 318 318 319 318 316
295 292 294 296 296 297 298 298 299 299 300 301 301 301 302 302 304 304 305 306 306 307 309 308 309 311 311 311 311 311 312 312 313 314 313 313 313 316 318 318 319 319 319 319 317
294 292 293 292 298 297 297 298 300 300 300 300 301 300 301 303 303 304 305 304 305 307 308 309 310 309 310 310 311 311 311 311 312 311 313 312 313 312 316 318 318 317 317 316 314
294 292 294 295 295 296 297 297 299 298 299 301 299 299 300 302 303 304 303 304 305 306 308 307 309 308 311 310 310 309 309 312 312 312 313 313 313 315 316 316 313 313 313 312 310
294 294 294 294 294 296 297 298 298 298 297 299 298 299 300 302 302 303 303 303 304 304 306 308 309 309 309 310 308 308 309 311 312 314 315 313 314 314 315 313 310 309 308 307 306

GFSSW_850_thetae_108.txt.gz
Theta_e
303 302 302 301 301 300 301 301 302 301 301 300 300 299 299 299 300 301 303 304 303 305 304 303 304 311 314 314 315 315 319 320 321 319 320 318 318 318 318 320 319 320 321 323 319
300 299 300 301 300 299 299 300 300 300 300 300 300 300 300 299 299 300 303 304 305 306 306 308 310 312 314 315 315 317 319 320 321 320 319 318 318 319 319 319 320 319 320 325 324
297 297 298 299 298 298 299 299 299 299 299 299 298 299 300 299 302 304 306 309 308 309 309 309 309 312 314 315 316 317 319 321 320 318 318 318 318 317 318 319 319 320 319 320 325
295 295 296 297 298 299 299 299 300 300 299 298 298 299 298 300 304 307 307 309 308 305 309 308 311 313 315 317 316 317 317 318 319 317 316 318 317 318 318 318 318 319 318 319 320
298 298 298 298 299 298 298 298 298 298 298 298 298 299 301 304 304 302 301 302 302 306 307 309 309 311 314 314 315 317 318 317 317 316 316 316 317 318 318 318 318 318 318 318 319
296 297 297 297 297 297 297 296 296 295 296 298 298 299 303 304 302 301 301 301 302 309 307 309 309 310 312 313 314 316 316 317 316 317 317 317 318 318 318 318 318 319 319 319 320
295 295 295 295 296 295 296 296 295 295 295 296 297 302 302 302 301 302 301 301 301 304 309 308 309 311 311 313 312 312 314 315 315 315 316 315 317 318 316 317 317 317 318 318 320
294 294 294 294 295 295 295 295 295 296 295 296 297 303 302 302 301 300 301 302 301 300 303 308 310 310 312 312 313 314 314 315 317 317 316 316 320 321 319 320 320 319 320 320 320
294 294 295 295 295 295 295 296 296 296 296 297 302 303 302 302 301 300 301 302 302 303 302 303 306 310 312 313 314 315 317 318 318 318 318 317 319 321 319 319 320 320 320 320 319
294 295 295 295 295 295 296 296 297 299 302 303 303 302 303 302 303 307 309 306 306 305 303 303 305 308 312 313 315 315 317 317 318 319 318 319 319 320 319 319 319 319 319 320 319
295 295 295 294 294 295 297 299 299 300 298 299 299 301 301 301 302 305 308 308 308 306 305 303 306 308 310 312 313 314 313 313 314 316 317 318 319 320 320 319 319 319 319 319 319
295 295 295 294 294 296 299 299 297 297 298 298 298 299 299 298 300 302 306 309 309 309 306 306 307 308 309 310 311 310 311 312 311 315 316 316 317 318 318 318 317 316 316 316 316
295 295 294 294 294 298 299 298 298 298 299 299 300 302 301 300 300 301 304 309 310 309 307 307 308 307 308 309 310 311 311 310 310 312 313 314 314 314 315 314 313 313 313 313 314
294 293 293 293 298 297 299 299 298 298 301 302 305 305 304 302 304 303 303 307 311 310 308 308 309 308 308 309 309 311 311 310 311 313 312 312 312 313 313 314 315 315 315 316 319
292 294 294 294 296 299 298 298 298 299 303 304 304 305 304 304 305 305 303 304 309 311 310 310 308 309 310 310 309 310 309 309 310 311 311 311 310 312 314 314 315 317 317 321 322
293 295 295 297 297 297 297 297 299 304 304 304 302 303 307 307 306 306 305 304 305 309 310 311 312 310 310 309 309 309 309 309 309 310 310 311 310 313 315 316 317 319 321 322 322
295 295 295 296 299 297 296 299 305 304 303 302 302 303 306 310 308 307 307 306 306 307 308 309 311 311 312 310 309 309 311 315 315 314 313 314 313 314 315 317 318 320 320 320 319
294 294 296 296 297 296 297 303 304 303 302 302 301 302 308 308 310 307 307 308 309 307 307 308 309 310 311 312 311 310 312 312 314 316 315 314 314 314 315 318 320 319 319 318 319
294 296 297 297 297 297 299 302 302 302 300 300 302 302 306 305 308 311 311 311 311 312 309 308 307 308 309 310 311 311 312 313 314 314 315 315 316 317 319 320 320 319 318 318 318
295 297 298 296 296 297 300 299 300 300 300 300 302 303 306 304 307 311 311 309 311 310 312 311 309 307 307 307 309 310 311 312 313 312 312 311 313 314 319 319 319 318 318 319 319
296 298 296 296 297 299 299 297 298 298 300 301 302 303 304 303 305 309 309 309 308 310 312 313 312 312 310 309 308 307 311 311 312 313 311 311 314 316 316 317 318 318 318 319 320
297 299 296 296 300 300 300 300 299 300 301 303 303 303 303 304 305 306 306 307 306 307 313 312 314 313 312 313 311 308 308 310 311 312 313 312 313 317 318 318 318 319 320 320 320
297 297 297 298 300 299 300 300 300 301 301 303 303 303 304 304 305 305 305 306 306 309 312 310 314 312 312 314 314 314 313 311 312 313 314 316 317 318 319 319 319 320 320 320 319
297 299 297 299 298 299 299 300 301 301 302 302 303 303 303 304 304 305 306 306 305 309 308 310 312 313 312 313 313 314 314 314 314 315 314 314 314 317 317 318 319 319 318 316 315
296 298 296 298 299 298 298 299 301 301 300 302 302 301 302 303 305 305 305 306 306 308 309 310 312 312 312 312 313 313 313 313 313 314 314 313 314 315 317 318 317 314 313 313 311
296 297 296 297 297 298 298 299 299 300 299 301 303 302 301 303 304 305 305 305 306 307 308 309 311 310 311 311 312 312 312 312 313 313 314 314 314 316 316 314 312 311 310 309 307
295 295 297 297 298 298 298 298 299 298 298 299 300 300 301 303 303 303 304 305 306 307 306 308 310 310 310 310 310 311 311 312 313 314 315 315 316 314 314 311 308 308 307 304 303

GFSSW_850_thetae_111.txt.gz
Theta_e
299 298 298 298 298 298 297 298 298 298 298 298 298 298 299 300 300 302 306 307 308 307 306 305 311 313 314 316 318 319 322 323 324 324 324 323 321 320 320 319 321 322 323 326 329
297 297 297 297 296 296 297 298 298 298 298 298 298 298 299 299 300 305 307 306 304 303 304 306 311 312 314 317 318 320 323 323 324 325 324 323 321 321 320 320 321 321 323 325 327
296 295 295 296 297 298 298 298 297 297 297 296 297 297 297 298 305 309 307 305 308 308 309 310 310 313 315 317 319 320 322 323 323 323 323 323 323 320 322 322 320 321 321 322 325
297 298 297 297 297 296 296 296 296 296 296 295 297 298 297 303 306 309 306 308 308 308 313 312 312 312 315 318 318 321 321 321 321 321 322 322 321 322 321 321 320 320 321 321 321
296 296 296 296 296 295 295 295 296 295 295 295 295 297 301 305 306 306 305 303 305 306 310 312 312 314 316 318 319 320 321 321 320 320 321 320 321 321 321 320 320 320 320 320 321
294 294 295 295 295 295 295 295 295 295 295 295 295 296 304 306 305 305 305 304 304 305 305 308 311 313 314 317 319 319 320 320 320 320 320 321 321 320 320 320 320 320 320 320 320
294 295 295 295 295 295 295 295 295 295 296 296 296 297 303 303 304 304 305 305 305 306 308 310 309 312 313 315 315 316 318 318 319 319 321 320 321 321 320 320 320 320 321 321 321
294 294 295 295 295 295 295 295 295 296 297 297 297 300 304 304 304 303 304 304 305 305 305 308 310 310 312 314 315 316 317 318 318 319 319 318 321 322 322 322 321 320 320 321 321
294 294 295 295 295 294 294 294 296 298 298 300 304 306 305 303 304 304 303 304 304 304 304 305 307 310 311 314 316 318 318 319 319 320 319 319 319 320 320 322 322 323 322 322 322
294 294 295 294 294 294 294 297 300 300 303 301 304 305 304 303 302 304 304 307 306 304 305 305 306 309 311 314 318 318 319 319 320 321 321 321 320 321 321 322 322 322 322 322 322
294 294 294 294 293 294 296 301 301 302 302 300 299 300 300 302 302 302 302 305 308 304 307 306 307 308 310 313 316 317 318 319 320 320 321 321 321 321 321 322 322 322 322 322 322
294 294 294 293 293 296 301 301 300 299 300 300 301 302 305 306 306 304 301 302 308 311 309 308 307 309 311 312 314 316 317 318 319 318 317 318 319 320 320 322 322 322 322 321 321
293 293 293 293 295 302 301 301 300 300 301 301 304 305 304 305 305 304 302 301 305 312 310 308 308 309 311 311 312 315 316 316 316 315 314 316 317 317 317 318 318 319 319 318 318
293 292 294 295 301 300 302 300 300 300 305 306 305 306 304 304 307 305 302 303 307 312 311 308 309 309 310 311 312 313 314 314 314 313 315 315 318 318 318 316 318 317 316 316 316
292 294 294 295 299 301 300 300 300 300 307 305 305 303 303 307 307 304 304 305 307 311 311 310 309 310 310 311 312 312 313 313 313 313 314 314 316 317 317 316 316 317 316 317 319
294 295 294 301 302 301 300 301 302 306 307 305 304 304 306 308 309 308 306 305 307 309 310 311 310 311 311 311 312 311 311 311 311 313 314 315 314 315 314 316 316 317 318 321 321
294 295 295 299 301 300 300 303 308 308 305 303 303 304 306 307 309 309 307 306 308 309 312 313 314 312 312 313 312 312 313 313 313 313 315 314 313 314 316 316 318 319 321 321 321
294 295 299 300 300 300 301 305 307 305 304 303 303 304 307 306 307 310 308 306 306 307 308 310 312 313 314 312 312 312 313 317 318 317 315 314 315 316 315 317 319 320 320 319 320
297 300 301 300 300 300 302 307 305 304 302 302 304 304 305 304 306 308 311 313 311 311 311 309 310 312 314 313 313 312 312 313 315 317 319 318 316 318 316 318 320 319 318 318 319
299 299 300 297 300 302 303 301 301 301 302 303 303 304 305 304 306 308 312 309 310 311 313 313 310 310 310 313 312 312 312 313 314 314 314 314 316 317 317 319 319 318 318 318 319
300 301 300 296 302 303 304 301 301 301 301 303 304 305 304 304 305 309 309 310 309 311 313 314 314 309 309 309 310 310 312 312 312 312 313 314 315 318 318 318 318 318 318 318 319
300 303 299 300 304 303 304 302 301 302 302 304 305 304 305 305 305 307 307 307 306 310 312 313 315 313 312 312 312 309 311 312 312 312 312 314 318 317 318 318 317 318 318 319 320
300 299 299 301 304 302 302 302 302 303 304 304 304 304 304 306 307 305 306 307 306 310 311 311 315 316 317 315 311 309 309 312 313 313 314 314 313 318 318 319 318 319 320 320 318
299 302 300 300 300 302 302 302 303 303 304 303 304 304 304 305 305 306 306 306 307 309 309 311 313 315 317 316 314 314 312 310 312 313 313 314 319 320 318 318 319 317 316 315 314
300 301 299 302 302 301 301 302 302 303 302 303 304 304 303 304 305 305 306 306 306 308 309 311 313 313 313 313 314 314 315 314 314 314 314 315 316 318 319 319 315 313 313 312 310
296 301 300 300 299 300 300 302 301 303 302 302 303 303 303 304 305 305 305 306 306 308 309 309 313 312 311 311 312 313 312 313 313 312 313 313 313 319 317 314 312 311 310 309 307
299 299 300 300 301 301 300 300 301 301 301 301 301 302 303 304 303 303 304 305 306 307 308 309 311 312 311 311 311 312 312 312 312 312 313 315 317 316 314 311 307 306 305 304 302

GFSSW_850_thetae_114.txt.gz
Theta_e
298 298 297 297 297 297 297 298 298 298 298 298 298 299 299 300 301 302 306 307 308 309 310 309 307 312 313 318 320 321 323 323 323 323 324 324 325 322 321 321 321 322 323 330 334
297 297 296 296 296 297 297 297 297 296 297 297 297 298 299 299 301 304 307 307 306 307 306 307 307 309 314 316 319 322 324 322 323 324 325 324 325 324 322 321 321 321 323 326 329
297 297 297 297 297 296 296 296 296 296 296 296 296 297 298 298 306 312 308 306 306 306 309 310 310 310 313 315 317 319 322 322 323 323 323 324 324 324 322 322 321 322 322 323 325
296 296 296 296 296 295 295 295 295 296 295 295 295 296 296 302 307 309 307 305 308 308 311 316 314 313 313 315 316 319 321 321 321 322 323 324 324 324 323 322 322 322 322 322 323
295 295 295 295 295 295 295 296 296 296 296 296 296 296 297 305 306 306 306 306 306 306 307 311 314 314 315 315 316 319 319 321 322 322 322 322 323 323 322 322 322 321 321 322 322
295 295 295 295 295 296 296 296 296 296 296 296 296 296 302 304 304 305 305 306 306 306 306 306 308 312 315 316 317 317 319 320 321 322 322 322 322 322 322 321 321 321 321 321 321
295 295 295 295 296 296 296 296 296 296 296 297 297 297 303 303 304 305 305 305 305 306 306 306 306 308 312 315 316 317 318 320 321 322 322 322 322 322 321 321 321 321 321 321 321
294 295 295 295 295 295 295 296 296 297 298 298 298 300 304 305 305 305 305 305 305 305 306 307 308 307 310 311 315 316 317 319 320 320 321 321 323 323 321 322 322 321 321 321 321
294 295 295 295 295 295 295 296 300 300 300 301 303 307 307 305 304 302 302 304 306 307 305 306 307 310 312 312 313 316 318 319 318 319 320 320 320 321 321 322 322 322 322 322 321
294 294 295 295 295 294 296 301 302 302 304 304 304 304 305 303 303 306 305 304 304 304 308 307 306 308 310 313 314 316 317 318 319 320 320 320 320 320 320 320 320 322 323 323 322
294 294 294 294 294 297 302 303 302 305 303 301 301 301 302 303 306 305 306 306 305 304 305 308 308 307 307 313 315 315 317 319 320 320 321 321 321 321 321 321 322 323 323 324 324
293 294 294 294 295 300 304 303 302 301 302 302 302 303 304 305 305 306 307 307 307 305 304 309 312 307 308 309 311 314 315 318 320 320 320 321 322 321 321 322 321 322 323 323 323
293 293 293 294 301 303 304 303 302 302 303 304 305 306 306 304 305 307 306 307 306 305 304 308 310 308 307 307 309 312 314 317 318 318 317 319 320 317 320 321 321 322 323 323 323
293 293 294 294 303 302 303 302 302 302 305 307 306 305 304 305 308 307 306 305 304 304 307 310 311 308 307 307 309 312 313 315 317 318 320 317 317 316 317 319 319 318 319 321 322
293 293 294 299 299 304 302 302 302 303 308 306 305 303 304 307 306 309 307 304 305 307 308 312 313 310 308 308 309 311 314 315 316 315 316 316 316 316 317 318 319 319 319 318 318
294 294 294 303 303 304 302 303 304 309 309 305 304 304 305 307 307 308 309 309 305 307 309 310 310 313 310 310 310 312 313 314 314 315 316 315 315 316 318 319 319 318 316 318 320
294 294 294 300 303 302 299 304 309 309 306 304 303 304 306 306 306 308 309 309 305 309 310 309 313 314 313 311 311 312 313 314 316 316 317 315 315 316 317 318 319 318 318 322 322
294 294 302 301 302 302 303 307 309 306 304 303 303 304 305 305 305 308 311 310 306 307 309 307 314 313 314 312 311 312 313 315 315 315 315 313 316 316 316 316 317 320 322 321 321
300 302 303 304 299 303 304 308 303 302 302 302 304 304 305 305 308 308 309 311 311 312 314 314 312 313 314 313 313 313 314 315 316 318 320 316 315 317 316 318 320 321 320 319 319
301 302 303 297 298 304 306 304 302 302 302 304 304 305 305 305 306 311 309 308 309 310 312 314 317 314 312 313 313 313 314 315 315 317 320 323 316 319 317 320 320 320 319 319 319
302 303 303 296 303 306 307 304 303 302 302 304 304 304 305 305 306 309 309 308 307 310 312 313 314 315 313 315 314 314 313 313 314 315 315 318 320 319 318 320 320 319 319 321 321
303 305 301 297 306 305 306 303 301 303 303 304 305 304 305 305 308 306 307 306 306 310 311 312 314 315 312 311 311 312 312 314 315 314 313 315 317 319 319 319 319 323 322 321 319
303 302 301 303 308 305 304 303 303 303 304 304 305 304 305 305 306 308 306 306 306 309 310 310 314 315 315 314 311 309 309 311 313 314 314 317 314 318 318 317 321 320 318 317 315
302 307 303 302 301 303 303 304 303 304 303 303 304 306 305 304 305 308 306 306 306 309 309 311 313 314 316 317 315 314 309 309 310 314 313 316 317 319 319 319 317 315 314 313 311
302 304 301 305 304 302 302 303 303 303 303 303 304 305 303 304 305 305 305 305 306 308 309 310 312 312 312 312 311 317 316 314 310 312 313 317 318 320 318 315 314 312 311 310 308
297 304 302 303 301 301 300 302 302 303 303 303 303 303 303 304 304 305 305 305 305 306 306 309 312 312 312 310 313 315 315 315 315 315 315 314 316 316 315 313 311 309 307 306 305
300 301 301 302 303 303 303 301 301 301 301 302 302 302 303 304 303 304 304 305 306 307 307 309 310 311 312 311 311 311 312 313 312 313 313 316 317 316 312 309 306 305 304 303 302

GFSSW_850_thetae_117.txt.gz
Theta_e
298 298 297 297 298 298 298 298 299 299 299 299 299 300 300 301 302 303 305 305 306 307 308 308 309 309 308 313 317 319 319 320 320 319 319 320 321 323 322 321 321 321 322 331 334
297 297 297 298 298 298 298 298 298 298 298 299 299 299 299 300 302 308 307 307 307 307 307 307 306 307 307 311 314 316 318 320 318 319 321 321 321 322 320 320 320 320 330 335 335
297 297 297 297 297 297 297 298 298 298 298 298 298 298 298 299 305 311 307 306 306 307 307 309 310 307 307 308 311 315 317 318 320 321 320 320 320 322 320 316 320 321 327 326 332
296 296 296 297 296 297 297 297 297 297 296 296 296 296 297 299 304 310 305 305 306 306 306 309 315 313 311 308 310 313 315 317 317 319 319 319 321 320 321 320 321 321 323 324 323
296 296 295 296 296 296 296 296 296 296 296 296 296 296 297 302 301 303 305 306 306 306 306 306 306 308 314 312 312 310 313 315 317 318 319 320 320 320 321 322 322 322 321 322 323
295 295 296 296 296 296 296 296 296 296 296 296 296 296 298 301 302 303 304 304 304 305 305 305 306 306 306 308 312 313 313 314 316 317 318 320 320 320 321 321 322 321 321 321 322
295 295 295 295 296 296 296 296 296 297 297 298 298 297 298 299 305 304 304 304 305 306 305 305 305 306 306 306 309 313 314 315 316 316 317 319 319 320 321 321 321 321 321 321 321
295 295 295 295 295 295 296 296 297 299 300 301 300 300 303 306 305 304 303 303 303 304 305 305 305 305 305 306 306 306 309 312 314 316 317 318 319 320 321 321 321 321 321 321 321
294 294 295 295 295 295 296 297 300 301 302 303 303 305 306 305 304 303 305 306 306 306 304 304 307 307 306 305 307 305 307 310 314 315 316 317 319 319 321 321 320 320 321 321 321
294 294 294 295 295 295 299 301 302 303 303 304 304 304 303 303 304 304 305 305 306 306 306 304 304 307 306 304 306 307 307 308 313 314 316 317 317 316 319 319 320 320 320 321 321
294 294 294 294 295 301 303 301 301 305 301 301 301 301 301 305 305 305 305 305 307 307 306 306 302 305 307 305 305 306 309 309 312 314 316 316 317 317 316 318 317 318 318 320 321
293 294 294 294 300 304 304 302 302 302 301 302 303 303 304 305 304 305 306 307 306 306 307 307 305 304 305 309 308 305 306 310 313 315 317 317 319 317 317 316 318 317 319 320 321
293 294 294 295 302 303 303 302 302 302 301 303 305 304 305 304 305 306 308 306 304 306 307 307 307 305 305 307 310 305 306 307 311 315 317 316 318 318 318 315 317 318 319 320 322
293 293 294 295 302 304 302 302 301 302 300 308 305 305 303 304 307 307 308 304 304 304 304 305 304 304 305 306 308 305 305 307 309 311 321 317 316 316 319 316 315 316 318 319 322
293 294 296 300 300 304 303 300 303 303 306 306 304 303 303 306 305 306 307 305 304 304 305 307 308 310 310 309 309 306 306 306 309 313 317 318 318 313 313 314 314 314 317 318 318
294 294 302 302 304 303 302 303 304 306 307 304 302 302 303 305 305 306 308 309 309 305 306 307 307 309 310 310 309 307 306 308 314 316 318 314 314 312 312 314 314 315 317 318 318
294 294 294 298 304 302 300 304 305 307 304 301 301 303 304 305 305 306 308 309 309 308 308 307 308 310 312 313 312 307 306 315 318 318 315 314 314 314 313 314 315 315 317 319 320
294 294 300 301 300 298 304 304 308 303 301 302 303 304 304 305 305 307 309 308 309 310 312 310 314 312 312 313 310 308 312 313 317 315 313 313 315 313 313 313 314 315 319 320 320
300 302 303 300 298 302 304 301 302 300 301 302 303 304 304 305 304 307 308 309 307 308 312 312 312 311 312 313 312 311 312 313 316 317 317 313 312 313 314 316 318 320 320 320 320
302 302 303 302 298 305 302 305 302 302 302 303 303 305 304 303 305 301 308 307 307 307 310 312 313 311 313 314 312 311 311 314 318 320 322 322 315 317 318 320 320 321 320 320 319
302 304 304 301 302 305 298 304 303 302 303 303 303 304 304 304 304 307 306 306 305 309 309 311 313 312 312 315 313 312 312 315 315 315 317 322 321 318 319 319 321 321 318 316 315
303 303 302 295 304 306 300 302 302 302 303 304 304 304 305 305 305 307 308 307 305 307 309 310 311 314 311 312 312 313 314 313 313 316 314 317 319 319 321 321 321 319 316 313 311
303 303 299 300 302 302 304 303 303 303 303 303 304 305 305 304 305 306 307 307 304 306 309 310 311 312 313 312 313 314 312 312 313 314 313 316 320 319 318 317 315 313 311 310 309
303 300 303 302 302 302 302 304 303 304 303 303 304 306 304 303 303 305 306 305 304 304 306 309 312 312 310 310 311 313 315 315 313 313 313 317 320 317 317 315 312 310 309 307 306
301 301 301 300 302 300 301 302 303 303 303 302 303 303 302 302 303 305 304 304 304 305 305 307 310 311 311 312 311 313 315 315 315 314 313 317 320 316 312 312 309 307 306 305 303
298 303 302 302 301 300 301 302 302 302 301 302 302 302 301 301 304 303 303 303 304 305 305 306 309 310 311 312 311 314 314 314 314 315 315 317 319 314 311 309 306 305 304 302 301
300 301 301 302 301 301 302 301 302 302 302 302 301 300 302 303 303 303 303 303 303 304 305 306 308 309 312 312 312 316 315 314 313 315 316 317 315 310 307 305 303 302 301 300 299

GFSSW_850_thetae_120.txt.gz
Theta_e
298 298 298 298 298 298 298 298 298 299 299 299 300 301 301 302 303 303 307 307 307 306 306 307 307 308 309 307 311 316 313 321 320 319 320 319 318 320 320 321 320 322 322 330 334
298 298 298 298 298 298 298 298 298 299 299 299 299 300 300 301 302 306 306 305 305 306 306 307 306 307 306 307 310 311 314 318 318 318 320 320 319 319 319 320 320 325 321 332 334
298 298 297 297 298 298 298 298 298 298 298 298 298 299 299 300 303 307 305 305 306 305 306 306 312 314 307 306 307 309 314 316 318 318 319 318 319 319 318 318 320 324 328 331 334
297 297 297 297 297 297 297 298 298 297 297 297 297 298 298 298 303 308 305 305 305 305 305 306 308 313 309 307 308 306 309 311 314 316 317 317 318 318 318 319 321 320 332 333 336
297 297 296 296 297 297 297 297 297 297 296 296 296 297 298 299 300 302 302 304 305 305 305 305 305 306 304 310 308 310 309 309 310 312 314 316 317 317 318 319 320 321 327 335 335
296 296 296 296 296 297 297 297 297 296 296 297 298 298 298 299 301 303 304 303 303 304 305 305 305 305 305 304 304 307 307 310 311 311 312 314 315 317 318 318 320 321 321 325 332
295 296 296 296 296 296 296 296 297 296 299 299 300 299 299 301 304 303 303 303 304 305 303 304 304 305 305 304 305 306 304 305 308 312 313 313 314 315 316 318 320 321 321 320 321
295 295 296 296 296 296 296 296 297 299 300 300 302 302 302 304 304 303 303 303 305 305 306 306 305 303 304 305 305 305 305 305 306 309 312 313 314 315 316 318 319 320 321 321 320
295 295 295 295 295 295 296 299 299 301 301 302 302 304 303 304 304 304 304 303 305 305 305 306 306 304 305 305 304 304 304 304 305 307 310 313 314 315 316 318 319 319 321 321 320
295 295 295 295 295 297 301 301 301 302 303 303 303 303 303 303 304 304 304 304 305 305 306 306 305 302 302 303 305 304 304 304 304 305 308 310 314 315 317 318 319 319 319 320 320
294 294 294 294 298 304 302 301 299 302 301 300 302 302 302 304 304 304 305 306 306 306 306 306 303 303 304 303 305 305 305 304 304 305 306 308 312 314 314 316 317 318 319 320 320
294 294 294 294 303 303 302 301 301 300 301 301 302 302 304 304 303 304 306 307 306 305 304 305 306 306 306 305 303 303 306 307 306 305 306 308 310 312 314 315 317 316 318 319 319
294 294 294 295 303 303 302 302 301 301 301 302 304 304 304 304 304 304 306 307 303 303 305 306 306 305 306 306 306 304 304 305 307 305 305 313 316 315 316 314 316 316 317 317 318
293 294 294 297 303 303 302 302 300 302 300 308 305 305 303 303 305 304 306 306 303 304 304 304 304 304 305 306 307 306 304 305 307 305 306 315 317 313 315 316 315 315 315 316 317
293 294 295 298 302 303 303 301 302 304 304 306 303 302 303 304 305 305 306 305 305 305 303 305 306 308 308 309 310 308 305 304 307 306 305 311 319 316 312 315 316 312 314 316 317
294 294 301 302 303 303 302 302 304 303 305 303 301 302 302 303 304 305 307 308 307 305 303 304 305 306 307 308 310 309 306 308 306 306 307 308 317 314 312 315 314 313 314 316 319
294 294 300 301 303 301 299 305 304 304 302 301 300 302 302 303 304 306 308 307 307 309 308 309 309 310 311 312 311 310 308 308 308 309 315 314 318 316 312 311 312 314 315 317 321
294 294 296 300 297 300 304 302 305 302 300 301 302 303 303 303 303 306 308 308 306 307 309 310 310 310 309 311 313 312 308 307 311 316 314 315 315 312 311 312 312 313 318 320 319
300 297 300 298 296 304 305 302 301 300 301 301 302 303 303 303 301 304 304 307 306 307 310 311 311 309 309 310 313 309 306 306 314 316 314 311 310 310 316 316 314 318 317 316 316
302 303 302 300 302 304 300 305 301 302 302 302 303 304 303 303 302 296 304 305 306 305 308 309 312 311 311 312 313 312 309 313 315 317 317 319 315 320 322 321 318 315 314 312 311
302 303 303 302 301 305 299 302 302 301 302 302 303 303 303 304 303 301 305 305 303 304 307 309 311 311 312 313 313 313 311 313 315 315 319 321 323 320 322 320 316 313 311 309 308
303 301 302 298 303 301 298 303 302 302 302 303 303 304 305 304 303 305 306 306 304 303 305 308 312 312 311 311 312 313 314 314 314 318 316 316 318 317 317 316 314 311 309 307 305
304 302 301 301 300 301 304 303 302 303 302 303 302 305 304 303 302 304 305 305 303 303 303 307 310 311 309 310 310 311 311 312 314 314 316 317 320 315 313 311 309 308 307 305 305
302 298 301 302 303 300 300 302 302 303 302 302 303 304 302 301 302 302 304 304 303 303 305 306 309 311 311 310 310 312 312 313 314 315 314 317 317 315 311 307 307 306 304 303 302
301 300 301 296 298 299 300 301 301 303 301 301 302 301 300 300 301 303 303 302 302 303 304 305 307 308 309 311 312 313 313 313 315 316 314 317 318 312 308 307 304 301 302 301 300
300 301 301 301 300 299 300 301 301 300 300 300 300 300 300 300 302 302 302 302 302 303 303 304 306 308 310 311 311 313 314 312 312 312 317 315 315 309 307 304 303 300 300 299 298
300 301 301 300 299 298 300 301 302 302 301 301 301 300 300 301 302 302 301 301 302 303 303 304 306 307 310 310 313 310 308 309 308 307 314 315 312 305 303 302 299 299 298 297 296

GFSSW_850_thetae_126.txt.gz
Theta_e
302 301 299 299 299 299 299 299 299 299 299 300 301 301 301 301 301 305 305 305 306 306 306 306 306 306 306 307 308 314 313 314 315 316 316 318 317 318 319 318 319 319 319 319 320
302 300 299 299 299 299 298 298 298 298 299 300 300 301 300 301 302 305 305 305 305 305 305 304 304 306 309 306 307 308 306 310 312 315 316 317 317 317 317 318 317 318 319 320 320
301 299 299 298 298 298 298 298 298 298 299 299 300 300 300 301 304 305 304 304 304 304 304 304 306 309 312 306 305 305 305 306 309 311 313 313 313 315 315 315 317 318 318 318 319
300 299 299 298 298 298 298 298 298 298 299 299 300 300 301 301 302 306 304 303 303 303 303 303 304 305 305 306 306 305 304 305 306 306 305 304 307 308 309 311 314 316 317 317 318
299 298 298 298 298 298 297 297 297 298 298 298 299 300 301 301 300 301 302 303 303 303 303 304 304 304 303 302 303 302 303 304 304 304 304 305 304 306 308 309 310 311 313 315 317
299 298 298 297 298 297 297 297 297 297 298 298 299 300 301 300 302 303 302 303 304 304 305 304 304 304 303 303 302 303 303 303 304 303 303 303 303 305 306 308 310 311 312 313 315
298 298 297 297 297 297 297 297 297 297 298 298 300 301 301 303 303 303 304 304 304 304 304 305 305 305 304 302 303 303 303 303 302 303 302 304 302 303 306 307 308 309 311 312 314
299 297 296 296 297 297 297 296 297 298 299 299 301 301 302 303 303 303 304 304 305 305 305 305 305 305 304 304 303 303 302 301 302 302 303 303 302 303 305 306 307 308 310 312 312
300 296 296 296 296 297 297 297 299 300 300 301 301 301 303 303 303 303 304 304 305 306 305 305 305 305 303 302 300 301 300 301 301 302 301 301 301 302 303 304 304 305 306 309 312
297 295 295 295 296 296 297 299 301 301 301 302 301 302 303 303 303 303 303 304 305 305 305 306 305 301 299 299 301 300 300 300 300 301 302 302 302 303 304 303 303 304 304 306 308
296 295 295 295 295 297 300 301 302 303 302 301 301 302 303 303 303 304 304 305 305 305 304 304 303 302 301 301 302 302 302 302 302 302 303 303 303 303 304 304 303 303 303 305 307
298 295 294 294 296 300 301 301 299 299 298 300 299 301 302 303 303 303 304 305 305 304 303 302 303 303 302 301 302 302 302 303 303 304 304 304 304 305 304 304 304 304 304 304 305
298 295 294 294 300 301 301 300 299 298 298 301 302 303 304 303 303 303 304 306 305 304 302 303 304 303 303 303 304 304 304 304 305 304 305 306 307 307 305 304 304 304 304 304 305
298 295 294 294 301 301 301 301 298 301 301 306 304 304 303 303 303 304 304 306 304 304 303 302 302 303 303 303 303 303 304 305 305 307 310 304 307 304 303 302 303 304 304 305 308
298 295 293 295 302 302 301 299 301 303 301 305 303 303 303 303 303 304 305 305 305 305 302 304 305 304 304 304 304 304 305 308 308 310 305 305 305 304 303 304 305 305 307 308 311
294 293 294 298 302 302 300 303 304 301 302 301 300 301 302 303 303 304 305 305 306 304 303 304 305 304 304 305 305 306 308 309 307 305 306 305 303 304 303 304 309 312 315 314 313
294 294 294 299 302 302 300 304 301 301 301 300 300 302 302 302 303 304 306 304 304 304 303 304 306 305 304 307 308 308 306 306 304 305 307 307 308 304 306 308 308 312 313 311 310
293 294 298 300 302 302 302 302 303 302 300 300 301 302 301 302 302 301 305 303 304 304 303 304 302 307 308 308 308 309 309 308 305 309 308 308 311 311 316 315 313 311 309 307 305
294 296 301 302 302 299 304 301 304 300 300 301 302 302 302 301 300 301 300 304 304 303 302 306 304 304 304 306 308 312 312 308 309 309 310 310 313 315 314 312 311 309 306 305 304
294 296 299 302 298 303 300 302 300 301 300 301 301 302 302 301 302 294 302 303 303 302 302 303 305 305 307 311 311 311 310 312 309 311 317 315 315 311 314 310 307 306 305 303 302
298 301 301 300 302 304 299 303 300 301 302 302 301 301 302 303 302 297 301 302 302 301 300 301 306 305 306 311 311 311 312 312 315 314 317 317 317 306 310 310 307 305 302 301 300
302 301 301 302 301 299 301 302 301 301 302 302 301 302 303 302 301 301 303 303 302 301 301 301 305 307 305 306 309 311 312 312 316 316 314 315 312 304 304 303 302 303 302 301 299
302 301 301 302 302 302 303 302 302 301 301 301 302 303 301 301 300 301 302 301 302 301 301 303 304 304 303 305 307 308 309 310 313 315 317 317 311 303 302 301 299 299 299 298 297
300 298 300 300 302 300 301 301 302 302 300 301 300 299 299 299 299 300 299 301 301 301 303 304 304 301 300 302 308 308 311 312 313 314 316 313 307 304 302 301 299 298 298 297 296
301 297 298 298 299 298 300 301 301 301 299 300 300 299 299 299 299 300 301 300 301 302 302 303 304 304 305 306 309 306 307 307 309 311 315 309 305 302 301 300 298 297 296 296 295
302 299 300 299 300 298 300 300 300 299 299 299 299 299 298 299 299 300 300 300 301 300 301 300 303 304 306 309 311 306 305 305 304 306 312 308 305 302 298 297 296 296 295 294 293
301 300 301 298 297 299 299 299 299 300 300 300 300 299 300 300 300 301 301 301 300 301 300 301 302 306 307 308 311 307 304 306 304 303 306 305 304 301 298 296 294 294 293 292 291

GFSSW_850_thetae_129.txt.gz
Theta_e
304 303 302 300 299 299 299 299 299 300 300 301 301 301 302 301 301 304 305 305 305 305 305 304 304 305 306 307 308 314 314 317 316 316 317 317 318 318 318 318 318 318 318 318 319
305 303 301 299 298 299 299 299 299 299 300 300 301 301 301 301 302 304 304 305 305 305 304 304 303 303 307 305 307 310 312 312 313 315 315 312 312 313 315 316 316 316 318 318 318
306 303 301 299 298 298 298 298 299 299 300 300 301 300 301 301 303 304 305 304 303 303 303 303 304 305 310 307 304 305 308 308 308 308 305 306 307 309 310 312 315 316 315 315 317
307 303 300 298 298 298 298 298 298 298 299 300 300 300 301 301 303 305 303 302 303 303 303 303 303 304 306 308 304 307 306 305 305 304 304 305 305 306 307 308 309 309 310 310 312
308 304 300 298 297 297 297 298 298 298 299 299 300 300 301 301 301 301 302 303 304 304 304 304 303 303 304 304 304 304 304 303 303 304 304 304 304 305 305 305 305 306 307 309 311
312 304 301 298 297 297 297 297 297 298 299 299 299 300 301 301 302 302 303 303 303 304 304 305 304 304 303 304 304 303 303 303 303 304 304 304 304 304 305 305 305 306 307 308 309
310 308 300 298 297 296 296 296 297 297 299 299 299 301 302 302 303 303 304 304 305 305 304 304 305 305 304 304 303 303 304 304 303 303 304 303 305 304 304 305 305 305 305 306 307
313 308 299 299 297 296 296 296 297 298 298 299 300 301 303 303 303 303 304 304 304 305 305 304 304 305 304 303 303 304 303 304 303 304 303 304 305 306 304 304 305 305 306 305 305
313 306 300 297 296 296 295 296 298 299 300 300 301 301 303 303 303 303 304 304 304 305 305 305 304 304 303 304 304 303 304 303 304 303 304 304 305 305 304 305 305 305 305 306 307
310 312 300 296 296 295 296 298 300 301 301 301 301 302 303 303 303 303 303 304 305 305 305 305 304 304 303 304 304 303 303 303 303 304 304 304 305 306 305 305 305 306 305 305 305
309 307 301 295 295 295 298 301 301 302 301 301 301 302 302 303 303 303 304 304 305 305 306 304 305 306 305 304 304 303 304 304 304 305 304 306 306 307 306 306 306 306 305 305 305
313 304 299 295 295 296 300 301 300 299 299 301 301 301 302 303 303 303 304 305 305 305 304 305 306 305 304 303 303 304 304 305 305 306 307 307 307 307 307 307 306 307 307 307 305
308 303 296 297 295 298 301 300 299 298 299 300 301 302 303 303 303 303 304 305 305 305 304 306 306 304 304 305 305 305 305 307 307 307 308 307 308 308 307 306 306 305 306 305 305
307 298 296 295 297 300 301 300 299 298 304 304 303 304 303 303 303 304 304 306 304 305 304 304 303 304 304 304 304 307 305 306 306 309 311 308 309 307 308 308 308 305 305 304 304
307 298 294 294 300 301 300 301 298 301 302 304 303 303 302 303 303 303 305 305 306 306 305 307 306 306 306 306 305 307 305 307 308 310 309 307 307 308 310 310 308 308 309 313 313
300 300 296 295 300 300 300 300 301 306 302 302 300 302 302 302 303 304 304 305 305 305 304 305 304 305 306 306 306 307 308 310 309 309 307 307 308 311 310 311 310 314 310 309 310
301 301 295 296 298 300 300 303 306 303 300 299 301 302 302 302 303 304 305 304 304 304 303 304 305 306 305 307 308 309 310 311 309 309 308 307 310 310 313 310 307 309 304 304 303
303 295 294 300 302 302 302 304 303 303 301 300 301 302 303 302 302 302 305 304 304 304 304 303 302 307 307 308 308 308 310 312 313 311 311 309 311 314 308 306 302 303 300 303 302
295 294 294 299 301 300 304 306 303 302 300 302 302 302 302 301 303 302 303 304 304 303 301 303 302 304 303 308 309 313 313 311 311 310 311 311 312 312 305 305 303 301 300 300 300
294 297 300 302 301 301 303 304 300 300 301 302 302 302 302 302 302 301 303 303 303 302 301 302 304 303 306 309 311 311 311 314 312 313 313 314 313 308 305 303 303 301 299 298 298
298 300 301 301 300 303 304 302 301 301 302 302 301 302 302 303 302 301 303 303 302 302 301 302 304 305 306 309 307 311 310 311 311 313 316 317 311 304 303 302 301 300 297 297 296
300 301 301 301 303 300 303 302 301 301 302 302 302 303 303 302 302 302 304 303 302 301 302 302 305 306 304 305 307 307 308 310 313 315 314 315 308 304 302 301 299 298 296 296 295
300 300 301 303 304 303 303 303 301 301 301 301 303 302 301 301 301 301 302 301 301 301 302 304 306 306 303 308 307 307 307 308 312 313 315 316 310 302 301 300 298 297 296 295 294
300 301 300 301 301 303 303 302 302 301 301 301 300 300 300 300 300 301 300 301 301 301 302 304 306 305 306 305 307 308 306 306 308 315 314 309 305 302 300 299 297 296 295 294 293
299 298 300 301 301 299 301 302 302 300 300 300 300 300 300 299 299 300 301 301 301 302 302 303 304 305 305 305 307 307 306 305 305 309 309 304 302 301 299 298 296 294 293 292 291
301 299 299 300 300 300 301 301 301 299 300 300 301 299 299 300 300 300 300 301 302 301 301 301 305 305 306 308 309 307 305 304 303 304 307 305 303 301 297 295 294 293 292 291 290
300 300 301 298 298 300 300 300 300 300 301 300 300 300 299 300 299 300 300 301 301 301 302 302 304 306 307 307 311 307 304 305 303 302 303 304 303 300 297 294 293 292 291 290 289

GFSSW_850_thetae_132.txt.gz
Theta_e
314 308 306 304 301 299 299 299 299 299 299 300 300 301 301 302 302 303 307 305 305 305 304 305 306 308 307 309 312 315 316 318 319 320 320 319 320 319 318 319 320 320 320 321 320
316 311 306 304 301 299 299 299 299 299 299 300 300 301 301 301 302 306 304 305 305 305 305 306 307 308 309 308 310 313 314 314 316 317 317 316 315 314 314 314 315 315 316 319 320
318 312 307 304 301 299 299 299 299 299 299 299 300 300 301 301 306 305 306 305 303 302 303 304 305 308 309 309 309 310 312 313 313 312 311 312 311 310 311 312 312 312 315 315 313
320 316 310 305 301 299 298 299 299 299 299 299 300 300 301 301 308 305 302 302 303 304 305 305 306 307 308 310 310 310 310 309 309 309 308 309 308 308 308 309 309 309 309 310 309
322 320 312 305 302 298 298 298 298 299 299 299 299 300 301 302 305 302 302 303 304 305 306 306 307 307 308 307 307 308 308 307 307 306 306 306 307 308 308 307 307 307 307 307 309
321 321 316 306 301 299 298 298 298 298 299 299 299 300 301 304 301 302 303 303 304 305 306 306 307 306 306 307 307 307 307 307 307 307 307 307 308 307 308 308 307 307 308 308 309
324 321 319 309 301 299 298 297 298 298 298 299 299 300 302 303 303 303 304 304 305 305 306 305 306 307 307 309 307 307 308 309 308 307 308 307 308 310 308 307 307 308 308 308 308
323 323 322 313 300 299 297 297 297 298 299 299 299 301 305 303 303 304 304 305 304 305 305 305 305 306 307 307 308 308 308 309 307 307 307 306 310 310 308 307 308 308 309 309 309
323 322 322 320 300 299 297 297 297 298 299 299 300 301 305 303 304 303 304 305 304 305 305 305 306 307 307 309 309 309 309 308 308 307 307 308 309 310 309 309 310 309 309 309 309
321 320 320 315 301 297 296 296 298 299 300 300 301 303 303 304 303 303 304 304 306 306 307 307 307 309 309 309 309 308 308 308 308 309 309 310 311 312 311 311 310 310 310 309 309
318 319 319 305 301 296 296 298 301 305 301 304 304 303 303 303 303 304 304 305 306 307 309 308 309 310 309 308 307 307 308 309 309 310 310 311 312 313 312 311 311 311 310 310 310
317 318 316 308 296 296 296 301 302 302 305 301 301 302 303 303 304 304 304 307 307 309 308 309 310 308 308 307 307 308 309 310 310 310 311 312 313 313 312 312 311 311 311 311 310
318 316 313 308 298 296 298 300 299 300 303 301 302 302 303 303 304 305 305 306 308 309 309 309 309 307 307 308 308 309 309 309 310 310 312 312 312 312 312 313 313 312 313 314 314
317 314 311 305 297 298 301 299 299 298 306 305 304 305 304 304 305 304 305 306 308 309 308 309 307 307 308 309 308 309 309 309 310 312 314 312 314 313 314 315 312 309 307 305 307
314 312 311 308 299 299 301 300 299 298 307 306 305 304 303 304 305 305 305 306 308 307 308 309 307 308 310 309 308 310 310 310 312 313 312 312 312 312 314 311 307 307 303 302 303
311 312 307 296 300 301 300 300 299 308 305 304 304 304 305 304 305 305 306 306 307 307 307 307 306 307 309 309 309 309 311 313 312 312 313 312 310 315 310 309 305 303 302 299 300
313 312 304 297 300 301 300 300 305 306 305 302 303 305 305 305 305 307 306 307 307 307 306 305 307 308 308 309 311 311 314 314 314 314 313 311 312 311 308 305 305 303 300 298 297
313 306 298 298 300 301 301 306 304 305 305 303 304 305 305 305 305 306 307 307 306 305 305 304 308 309 309 308 312 313 313 314 315 314 315 313 313 315 306 304 302 300 299 297 296
306 296 297 298 299 302 303 306 306 305 303 304 304 305 304 304 306 305 308 307 306 304 304 304 305 305 305 309 312 314 315 313 315 314 314 313 314 312 306 304 302 299 298 296 295
298 297 297 299 301 303 307 305 304 303 304 304 304 304 304 304 305 311 306 306 306 304 303 305 307 305 306 311 312 312 312 314 315 317 315 314 313 309 305 303 302 299 297 296 294
298 297 298 301 301 302 305 304 303 303 304 304 304 303 304 304 304 305 306 306 305 304 303 305 306 307 307 309 310 311 312 311 312 314 316 317 312 305 304 303 301 299 296 295 293
300 302 299 301 303 304 305 304 302 303 303 304 305 305 304 304 304 304 306 305 304 303 305 306 307 308 307 307 309 309 309 311 314 316 315 316 312 304 303 301 298 297 295 294 293
300 299 300 302 305 305 305 303 303 303 303 304 304 304 304 304 304 304 305 304 302 303 306 307 309 309 309 310 310 309 308 308 310 312 316 317 312 303 301 299 297 296 294 293 292
301 302 300 301 302 304 304 303 303 302 303 304 304 304 304 303 303 304 303 303 303 303 302 305 308 308 309 309 309 310 307 308 309 314 313 308 307 304 301 299 297 295 294 293 292
301 301 300 303 303 305 304 303 303 302 302 302 303 303 303 303 302 302 302 303 303 304 305 305 307 307 308 308 308 309 307 306 307 309 311 306 304 303 300 298 297 294 293 292 291
299 301 301 302 303 304 303 304 303 302 303 303 303 303 302 302 302 303 303 305 305 304 305 305 308 307 309 309 309 308 307 305 305 305 306 307 305 303 299 297 296 295 293 292 291
299 300 302 303 304 304 304 304 303 303 302 302 303 302 302 302 302 302 302 303 304 305 307 307 308 309 309 308 310 310 305 305 304 303 304 304 302 300 300 297 294 293 293 291 290

GFSSW_850_thetae_135.txt.gz
Theta_e
320 316 311 308 305 303 300 300 300 300 300 300 301 301 301 302 302 306 310 309 306 305 305 309 308 310 310 310 312 314 318 320 320 321 322 322 321 321 318 318 319 320 322 322 321
322 319 313 309 305 303 300 300 300 300 300 300 300 301 301 302 303 308 307 305 305 305 308 308 309 310 311 311 312 314 316 317 318 317 319 318 317 316 315 315 315 315 316 316 321
322 321 318 312 307 303 300 300 299 299 300 300 300 301 301 302 310 309 305 306 303 303 307 307 308 309 311 312 312 313 314 316 315 314 314 314 313 313 313 314 314 314 313 313 313
322 322 320 316 310 305 301 299 299 299 300 299 300 301 301 302 312 308 304 302 303 306 307 308 309 310 312 313 313 313 313 313 313 312 312 312 311 311 311 312 311 311 311 311 311
323 321 322 321 314 307 301 299 299 299 299 299 300 300 301 307 307 306 302 304 306 307 308 308 309 310 312 312 311 312 312 311 310 310 310 310 310 311 311 311 311 310 310 310 311
324 323 321 321 318 312 304 299 299 299 299 299 299 300 305 307 304 304 304 305 307 307 308 308 309 309 309 310 310 311 311 310 310 311 311 311 311 310 311 311 311 310 311 311 311
324 324 323 322 320 314 305 301 300 298 298 299 299 300 306 307 305 306 305 306 306 307 308 308 308 309 310 312 312 310 311 312 313 311 311 310 310 313 312 311 311 311 311 311 311
323 324 323 323 320 314 304 303 300 298 298 298 299 302 308 305 305 305 307 307 306 306 307 307 307 308 309 310 310 311 313 313 312 311 311 310 311 313 312 312 312 312 312 312 312
321 322 322 322 320 316 302 301 298 298 298 299 300 306 308 304 305 306 307 307 306 307 308 306 308 310 311 312 313 313 313 313 312 312 311 311 312 313 312 313 313 313 313 313 312
320 320 320 321 319 316 299 296 297 298 299 301 305 306 305 305 305 305 306 305 307 308 309 309 310 312 313 313 314 313 312 312 311 312 312 313 313 314 313 313 314 313 314 314 314
318 316 319 318 318 316 300 297 300 307 306 307 307 306 306 305 304 305 306 306 307 309 311 312 311 313 314 312 311 310 310 310 312 313 312 313 313 314 314 314 316 315 315 314 313
312 318 317 318 317 311 296 305 304 305 308 306 304 305 305 305 306 306 305 308 309 311 311 312 314 312 310 310 310 310 311 312 312 312 312 313 314 315 316 315 313 312 310 309 308
310 315 317 318 316 304 299 301 302 301 304 306 304 305 304 305 306 307 306 308 309 310 311 312 312 310 310 310 310 312 312 311 311 311 313 315 315 314 317 313 311 309 308 307 305
311 313 314 316 312 302 300 304 301 299 307 308 304 305 305 306 306 307 306 308 309 310 310 311 311 309 309 310 311 311 311 311 311 313 314 315 315 314 316 314 310 308 306 305 303
311 312 314 313 313 305 309 300 300 300 314 310 305 306 305 306 307 306 307 307 310 311 309 313 310 310 311 311 310 311 311 312 313 315 316 315 315 315 313 311 310 306 303 302 301
311 311 314 311 309 310 303 300 299 307 313 308 307 307 307 306 307 307 307 307 308 309 309 310 308 309 311 310 311 312 313 315 316 315 317 315 314 315 311 309 308 304 302 300 300
312 313 311 312 306 305 300 299 304 310 312 308 307 307 307 307 307 308 308 309 310 309 310 309 309 310 310 311 313 314 315 316 316 319 316 314 314 312 309 308 306 303 301 299 298
313 311 310 310 306 301 300 304 307 309 311 307 308 307 308 308 308 308 308 309 308 308 309 308 311 310 311 311 314 315 315 315 315 314 315 314 316 312 308 306 304 302 300 298 297
308 306 309 301 302 300 301 306 310 311 309 307 307 308 308 308 308 308 309 309 309 307 308 307 308 308 307 310 313 317 317 314 316 315 316 315 316 313 307 306 304 301 299 297 296
303 305 300 300 300 301 304 308 309 307 307 307 308 308 308 307 308 313 309 309 308 306 305 308 309 307 308 310 313 313 313 316 316 317 316 314 314 311 306 305 303 301 298 296 295
303 300 300 300 302 301 308 309 309 305 306 308 308 308 308 307 307 308 308 308 308 305 305 308 309 309 308 311 311 312 315 313 313 314 316 317 313 306 304 302 302 299 297 295 293
300 301 300 300 303 303 309 309 305 306 306 307 307 307 308 307 307 306 308 308 306 305 307 309 310 311 309 309 310 311 311 310 314 315 318 316 311 304 303 302 300 298 296 295 293
299 300 299 301 307 307 307 307 305 306 306 306 307 308 308 307 306 306 308 307 305 305 308 309 311 312 311 311 310 311 310 309 310 311 315 318 311 305 301 300 299 297 296 294 293
300 302 300 300 304 305 306 306 305 304 305 305 307 307 307 307 306 306 307 305 304 304 304 306 310 311 311 311 310 309 310 309 310 314 317 311 309 306 303 301 299 297 295 294 293
302 303 302 303 307 306 306 305 305 305 305 305 305 306 306 306 306 306 305 305 304 304 304 309 310 309 309 308 310 310 309 308 309 310 311 308 307 304 302 301 299 297 295 293 292
302 303 303 304 304 306 306 305 305 304 304 304 304 304 305 305 305 305 304 305 307 306 308 308 311 309 309 309 311 310 309 308 307 307 307 307 306 303 302 300 298 297 295 293 292
302 302 303 304 304 306 305 304 304 304 303 304 305 305 304 304 304 304 305 306 307 308 309 310 310 310 311 310 311 311 308 307 305 304 305 306 303 302 302 300 297 296 294 293 292

GFSSW_850_thetae_138.txt.gz
Theta_e
322 322 319 314 310 307 302 300 300 300 300 300 301 301 302 303 303 310 313 312 307 305 306 310 310 310 312 311 312 315 316 317 319 321 319 320 321 322 320 318 317 318 318 321 320
323 322 321 318 314 309 305 300 300 300 300 300 301 301 302 303 303 310 310 308 305 305 308 309 310 311 311 313 313 314 315 317 319 317 316 317 318 317 315 315 315 315 316 316 316
323 323 323 320 317 312 306 302 300 299 299 300 301 301 302 302 310 311 309 306 305 304 309 308 309 309 311 312 313 314 314 315 316 315 314 314 314 314 313 313 314 313 313 313 313
325 324 323 322 320 315 309 303 300 299 300 300 300 301 302 302 312 311 306 304 303 306 309 309 310 311 312 313 313 314 315 314 314 313 313 313 312 312 312 312 312 312 312 312 312
325 325 323 322 321 319 313 305 301 299 299 300 300 300 301 310 309 309 306 303 306 308 309 310 310 311 312 312 312 312 313 313 313 312 311 312 312 312 312 312 312 312 312 312 312
324 324 325 323 322 320 313 306 302 300 300 299 299 300 306 310 307 306 305 305 308 308 309 310 310 310 310 311 312 312 312 312 312 312 312 312 312 312 312 312 312 312 312 312 312
321 323 323 324 323 322 318 308 302 302 300 299 299 300 308 309 306 307 305 308 307 308 309 309 309 310 311 312 312 313 312 311 312 313 313 311 311 312 313 312 313 313 313 313 313
321 322 323 322 323 322 321 309 304 303 299 298 299 299 309 307 306 307 308 308 307 307 308 308 309 309 310 311 311 311 312 313 314 313 313 312 311 314 313 313 313 313 314 314 315
318 321 321 320 321 321 320 307 302 302 298 298 300 302 308 308 306 306 308 308 308 308 309 308 308 310 312 313 314 315 314 315 315 314 313 312 312 313 314 314 314 315 316 314 313
317 318 319 318 320 319 318 307 300 300 302 299 304 307 307 307 306 307 307 307 307 309 309 310 311 313 313 314 314 315 314 313 313 313 313 313 313 314 314 315 316 314 313 311 310
310 315 318 317 319 318 317 300 303 309 306 309 310 307 308 307 307 306 306 307 307 308 310 312 313 312 314 314 313 311 310 310 311 313 313 313 313 313 316 314 313 312 310 309 309
306 308 310 314 318 318 314 302 303 304 305 309 308 308 307 307 307 306 307 307 308 310 311 313 311 314 313 311 310 311 311 312 313 313 312 312 312 316 315 313 311 309 307 306 305
305 306 309 314 315 313 314 304 305 302 306 309 308 307 307 306 307 308 307 307 310 311 311 312 313 312 312 311 310 311 312 312 312 311 312 312 314 317 315 312 310 307 305 304 303
305 306 309 311 312 309 310 304 307 304 307 313 314 308 306 306 307 307 307 308 310 310 311 312 312 311 310 310 311 311 312 312 311 312 312 313 313 314 314 312 309 306 304 302 301
305 307 309 311 311 307 307 311 304 305 317 316 309 307 307 306 309 307 308 308 309 311 310 312 312 311 311 311 312 311 311 312 312 313 315 316 314 315 313 310 308 305 303 301 300
305 306 309 311 310 308 305 309 302 308 313 315 309 308 308 307 308 308 308 308 310 310 311 310 310 310 310 312 311 312 313 315 315 316 319 317 315 313 311 309 307 304 302 300 299
306 306 309 310 308 305 306 302 306 311 315 313 308 308 308 308 308 309 309 308 309 307 309 310 309 309 310 311 312 313 315 315 316 319 319 315 315 312 309 307 305 303 300 298 297
306 306 308 308 309 306 304 305 311 313 315 313 310 309 309 309 308 308 310 310 310 311 311 311 310 311 311 311 312 314 314 314 316 314 315 314 316 310 308 306 304 302 300 298 296
307 308 306 307 309 304 305 309 313 314 313 311 309 309 308 308 310 309 311 310 310 309 308 310 310 311 311 309 313 316 315 316 314 314 317 315 312 310 306 305 303 301 299 297 296
307 304 305 307 304 304 307 312 312 313 312 311 309 308 309 309 309 314 310 310 310 308 307 309 310 310 308 308 310 312 313 313 316 316 314 314 317 313 306 304 303 300 298 297 295
304 304 303 304 302 303 308 311 312 311 310 311 310 310 310 310 309 310 310 310 310 307 306 309 310 309 309 309 311 315 314 314 313 313 313 316 314 307 303 303 302 299 297 296 294
304 302 302 302 302 303 307 309 311 311 308 309 310 310 310 311 309 309 309 309 308 306 306 309 310 311 310 311 311 311 312 311 312 312 314 315 312 304 303 301 300 298 297 295 294
300 302 302 301 306 304 308 309 310 311 308 308 308 310 310 311 309 308 308 309 306 306 309 309 311 312 309 310 310 311 311 310 310 311 312 316 313 305 301 300 299 298 296 295 294
300 301 300 301 302 305 308 310 309 307 308 308 308 309 309 309 308 308 309 308 305 306 306 308 311 312 314 314 313 313 311 310 310 312 313 312 309 305 302 300 299 298 296 295 293
303 304 302 302 304 307 308 311 308 308 307 307 308 308 309 309 307 307 308 307 305 304 306 310 311 310 309 308 310 310 309 309 309 309 311 310 307 304 304 302 299 298 296 295 293
301 304 302 303 306 308 308 308 307 306 306 306 306 308 309 308 307 308 308 306 305 306 307 309 312 309 309 309 312 310 310 309 308 308 308 309 307 303 303 301 299 298 296 295 294
303 304 305 305 308 308 308 306 307 307 306 306 306 307 307 306 305 307 306 305 307 307 309 310 311 309 311 312 312 311 312 309 307 305 306 308 304 302 302 301 298 297 296 295 293